DL9BGG-13 Weather Reports


time (UTC)temp
C
wind
direction
speed
KPH
gust
KPH
rain 1hr
cm
rain 24hr
cm
rain mn
cm
humidity
%
barometer
mb
20260509022033 8 135 6.4 0.0 0.00 0.00 0.00 86 1065.8
20260509021912 8 135 3.2 0.0 0.00 0.00 0.00 86 1065.8
20260509021759 8 157 8.0 0.0 0.00 0.00 0.00 86 1065.9
20260509021638 8 135 4.8 0.0 0.00 0.00 0.00 86 1065.9
20260509021527 8 135 9.7 0.0 0.00 0.00 0.00 86 1065.8
20260509021419 8 157 9.7 0.0 0.00 0.00 0.00 86 1065.8
20260509021306 7 157 6.4 0.0 0.00 0.00 0.00 86 1065.8
20260509021145 7 135 8.0 0.0 0.00 0.00 0.00 86 1065.8
20260509021035 7 157 3.2 0.0 0.00 0.00 0.00 86 1065.8
20260509020927 8 135 1.6 0.0 0.00 0.00 0.00 86 1065.8
20260509020814 7 157 3.2 0.0 0.00 0.00 0.00 86 1065.9
20260509020701 7 157 6.4 0.0 0.00 0.00 0.00 86 1065.8
20260509020556 7 135 3.2 0.0 0.00 0.00 0.00 86 1065.8
20260509020445 7 135 1.6 0.0 0.00 0.00 0.00 86 1065.8
20260509020338 7 135 8.0 0.0 0.00 0.00 0.00 86 1065.9
20260509020224 8 135 3.2 0.0 0.00 0.00 0.00 86 1065.9
20260509020112 8 135 0.0 0.0 0.00 0.00 0.00 86 1065.9
20260509015952 8 112 0.0 0.0 0.00 0.00 0.00 86 1065.9
20260509015846 7 135 0.0 0.0 0.00 0.00 0.00 86 1065.9
20260509015734 7 135 0.0 0.0 0.00 0.00 0.00 86 1065.9
20260509015627 7 135 6.4 0.0 0.00 0.00 0.00 86 1065.9
20260509015514 7 135 1.6 0.0 0.00 0.00 0.00 86 1065.9
20260509015401 7 135 8.0 0.0 0.00 0.00 0.00 86 1065.9
20260509015256 7 135 3.2 0.0 0.00 0.00 0.00 86 1065.9
20260509015135 7 135 0.0 0.0 0.00 0.00 0.00 86 1065.9
20260509015022 7 135 0.0 0.0 0.00 0.00 0.00 86 1065.9
20260509014919 7 135 0.0 0.0 0.00 0.00 0.00 86 1065.9
20260509014812 7 157 6.4 0.0 0.00 0.00 0.00 86 1065.9
20260509014659 7 135 4.8 0.0 0.00 0.00 0.00 86 1065.9
20260509014546 7 135 4.8 0.0 0.00 0.00 0.00 86 1065.8
20260509014433 7 135 3.2 0.0 0.00 0.00 0.00 86 1065.9
20260509014327 7 135 0.0 0.0 0.00 0.00 0.00 86 1065.9
20260509014206 7 157 6.4 0.0 0.00 0.00 0.00 86 1065.9
20260509014053 7 135 6.4 0.0 0.00 0.00 0.00 86 1065.8
20260509013940 7 157 8.0 0.0 0.00 0.00 0.00 86 1065.8
20260509013827 7 135 6.4 0.0 0.00 0.00 0.00 86 1065.9
20260509013722 7 157 1.6 0.0 0.00 0.00 0.00 86 1065.9
20260509013617 7 157 4.8 0.0 0.00 0.00 0.00 86 1065.9
20260509013512 7 157 0.0 0.0 0.00 0.00 0.00 85 1065.8
20260509013406 7 135 4.8 0.0 0.00 0.00 0.00 85 1065.8
20260509013247 7 157 0.0 0.0 0.00 0.00 0.00 85 1065.8
20260509013132 7 157 0.0 0.0 0.00 0.00 0.00 85 1065.8
20260509013019 7 157 0.0 0.0 0.00 0.00 0.00 85 1065.8
20260509012915 7 157 0.0 0.0 0.00 0.00 0.00 85 1065.7
20260509012809 7 157 4.8 0.0 0.00 0.00 0.00 85 1065.6
20260509012648 7 157 0.0 0.0 0.00 0.00 0.00 85 1065.8
20260509012535 7 157 1.6 0.0 0.00 0.00 0.00 85 1065.8
20260509012422 7 135 0.0 0.0 0.00 0.00 0.00 85 1065.7
20260509012308 7 135 0.0 0.0 0.00 0.00 0.00 85 1065.7
20260509012155 7 135 0.0 0.0 0.00 0.00 0.00 85 1065.7
20260509012042 7 135 0.0 0.0 0.00 0.00 0.00 85 1065.7
20260509011929 7 135 0.0 0.0 0.00 0.00 0.00 85 1065.6
20260509011825 7 135 0.0 0.0 0.00 0.00 0.00 85 1065.7
20260509011720 7 135 3.2 0.0 0.00 0.00 0.00 85 1065.8
20260509011614 7 135 0.0 0.0 0.00 0.00 0.00 85 1065.6
20260509011510 7 135 4.8 0.0 0.00 0.00 0.00 85 1065.7
20260509011407 7 157 1.6 0.0 0.00 0.00 0.00 85 1065.7
20260509011259 7 157 0.0 0.0 0.00 0.00 0.00 85 1065.7
20260509011137 7 157 0.0 0.0 0.00 0.00 0.00 85 1065.8
20260509011017 7 157 0.0 0.0 0.00 0.00 0.00 85 1065.8
20260509010905 7 135 0.0 0.0 0.00 0.00 0.00 85 1065.8
20260509010801 7 135 0.0 0.0 0.00 0.00 0.00 85 1065.8
20260509010647 7 135 0.0 0.0 0.00 0.00 0.00 85 1065.8
20260509010533 7 135 0.0 0.0 0.00 0.00 0.00 85 1065.7
20260509010428 7 157 3.2 0.0 0.00 0.00 0.00 85 1065.8
20260509010314 7 157 4.8 0.0 0.00 0.00 0.00 85 1065.9
20260509005918 7 135 3.2 0.0 0.00 0.00 0.00 85 1065.9
20260509005801 7 157 8.0 0.0 0.00 0.00 0.00 85 1065.8
20260509005645 7 135 3.2 0.0 0.00 0.00 0.00 85 1065.8
20260509005539 7 135 8.0 0.0 0.00 0.00 0.00 85 1065.8
20260509005434 7 135 6.4 0.0 0.00 0.00 0.00 84 1065.8
20260509005306 7 135 6.4 0.0 0.00 0.00 0.00 84 1065.8
20260509005152 7 135 4.8 0.0 0.00 0.00 0.00 84 1065.8
20260509005047 7 135 6.4 0.0 0.00 0.00 0.00 84 1065.9
20260509004942 7 135 0.0 0.0 0.00 0.00 0.00 84 1065.7
20260509004837 7 135 0.0 0.0 0.00 0.00 0.00 84 1065.8
20260509004732 7 135 0.0 0.0 0.00 0.00 0.00 84 1065.7
20260509004627 7 135 0.0 0.0 0.00 0.00 0.00 84 1065.7
20260509004522 7 135 0.0 0.0 0.00 0.00 0.00 84 1065.8
20260509004416 7 135 0.0 0.0 0.00 0.00 0.00 84 1065.7
20260509004303 7 135 1.6 0.0 0.00 0.00 0.00 84 1065.6
20260509004151 7 135 0.0 0.0 0.00 0.00 0.00 84 1065.5
20260509004047 7 135 0.0 0.0 0.00 0.00 0.00 83 1065.6
20260509003939 7 135 0.0 0.0 0.00 0.00 0.00 83 1065.6
20260509003818 7 135 0.0 0.0 0.00 0.00 0.00 83 1065.5
20260509003713 7 135 0.0 0.0 0.00 0.00 0.00 83 1065.6
20260509003606 7 135 0.0 0.0 0.00 0.00 0.00 83 1065.6
20260509003500 7 135 1.6 0.0 0.00 0.00 0.00 83 1065.6
20260509003345 7 135 6.4 0.0 0.00 0.00 0.00 83 1065.6
20260509003225 7 135 0.0 0.0 0.00 0.00 0.00 83 1065.6
20260509003120 7 157 0.0 0.0 0.00 0.00 0.00 83 1065.5
20260509003015 7 157 0.0 0.0 0.00 0.00 0.00 83 1065.6
20260509002902 7 135 0.0 0.0 0.00 0.00 0.00 83 1065.6
20260509002756 7 135 0.0 0.0 0.00 0.00 0.00 83 1065.6
20260509002651 7 135 3.2 0.0 0.00 0.00 0.00 83 1065.6
20260509002545 7 135 0.0 0.0 0.00 0.00 0.00 83 1065.6
20260509002440 7 135 0.0 0.0 0.00 0.00 0.00 83 1065.5
20260509002319 7 135 0.0 0.0 0.00 0.00 0.00 83 1065.5
20260509002207 7 135 3.2 0.0 0.00 0.00 0.00 82 1065.5
20260509002102 7 135 0.0 0.0 0.00 0.00 0.00 82 1065.5
20260509001955 7 135 0.0 0.0 0.00 0.00 0.00 82 1065.5
20260509001850 7 135 0.0 0.0 0.00 0.00 0.00 82 1065.6
20260509001728 7 135 0.0 0.0 0.00 0.00 0.00 82 1065.5
20260509001608 7 135 0.0 0.0 0.00 0.00 0.00 82 1065.5
20260509001455 7 135 0.0 0.0 0.00 0.00 0.00 82 1065.5
20260509001349 7 135 0.0 0.0 0.00 0.00 0.00 82 1065.5
20260509001244 7 135 0.0 0.0 0.00 0.00 0.00 82 1065.5
20260509001124 7 135 0.0 0.0 0.00 0.00 0.00 82 1065.5
20260509001018 7 135 3.2 0.0 0.00 0.00 0.00 82 1065.4
20260509000856 7 112 4.8 0.0 0.00 0.00 0.00 82 1065.5
20260509000736 7 135 0.0 0.0 0.00 0.00 0.00 82 1065.5
20260509000630 7 135 0.0 0.0 0.00 0.00 0.00 82 1065.5
20260509000518 7 135 4.8 0.0 0.00 0.00 0.00 82 1065.5
20260509000403 7 135 1.6 0.0 0.00 0.00 0.00 82 1065.5
20260509000243 7 135 4.8 0.0 0.00 0.00 0.00 82 1065.5
20260509000130 7 135 3.2 0.0 0.00 0.00 0.00 82 1065.5
20260509000017 7 135 3.2 0.0 0.00 0.00 0.00 82 1065.5
20260508235912 7 135 4.8 0.0 0.00 0.00 0.00 82 1065.4
20260508235807 7 112 6.4 0.0 0.00 0.00 0.00 82 1065.5
20260508235702 7 135 9.7 0.0 0.00 0.00 0.00 82 1065.5
20260508235550 7 135 3.2 0.0 0.00 0.00 0.00 82 1065.5
20260508235443 7 135 4.8 0.0 0.00 0.00 0.00 82 1065.5
20260508235330 7 135 4.8 0.0 0.00 0.00 0.00 82 1065.5
20260508235154 7 135 8.0 0.0 0.00 0.00 0.00 82 1065.5
20260508235040 7 135 8.0 0.0 0.00 0.00 0.00 82 1065.5
20260508234927 7 135 6.4 0.0 0.00 0.00 0.00 82 1065.5
20260508234821 7 112 1.6 0.0 0.00 0.00 0.00 82 1065.5
20260508234652 7 112 8.0 0.0 0.00 0.00 0.00 82 1065.5
20260508234540 7 112 0.0 0.0 0.00 0.00 0.00 82 1065.6
20260508234419 7 112 3.2 0.0 0.00 0.00 0.00 82 1065.5
20260508234305 7 112 6.4 0.0 0.00 0.00 0.00 82 1065.7
20260508234152 7 135 1.6 0.0 0.00 0.00 0.00 82 1065.6
20260508234047 7 135 3.2 0.0 0.00 0.00 0.00 82 1065.6
20260508233942 7 112 6.4 0.0 0.00 0.00 0.00 82 1065.5
20260508233836 7 135 6.4 0.0 0.00 0.00 0.00 81 1065.5
20260508233707 7 135 8.0 0.0 0.00 0.00 0.00 81 1065.6
20260508233546 7 135 6.4 0.0 0.00 0.00 0.00 81 1065.5
20260508233426 7 112 0.0 0.0 0.00 0.00 0.00 81 1065.5
20260508233320 7 112 4.8 0.0 0.00 0.00 0.00 81 1065.5
20260508233207 7 112 4.8 0.0 0.00 0.00 0.00 80 1065.6
20260508233055 8 90 0.0 0.0 0.00 0.00 0.00 80 1065.6
20260508232932 8 90 0.0 0.0 0.00 0.00 0.00 80 1065.6
20260508232820 8 90 1.6 0.0 0.00 0.00 0.00 80 1065.6
20260508232658 8 112 0.0 0.0 0.00 0.00 0.00 80 1065.6
20260508232535 8 112 0.0 0.0 0.00 0.00 0.00 80 1065.6
20260508232417 8 112 0.0 0.0 0.00 0.00 0.00 79 1065.6
20260508232312 8 67 0.0 0.0 0.00 0.00 0.00 79 1065.6
20260508232157 8 67 0.0 0.0 0.00 0.00 0.00 80 1065.7
20260508232037 8 67 0.0 0.0 0.00 0.00 0.00 80 1065.7
20260508231933 8 67 0.0 0.0 0.00 0.00 0.00 80 1065.8
20260508231827 8 112 0.0 0.0 0.00 0.00 0.00 80 1065.7
20260508231723 8 112 0.0 0.0 0.00 0.00 0.00 80 1065.7
20260508231618 8 112 0.0 0.0 0.00 0.00 0.00 80 1065.7
20260508231504 8 112 3.2 0.0 0.00 0.00 0.00 79 1065.7
20260508231350 8 67 6.4 0.0 0.00 0.00 0.00 79 1065.6
20260508231237 8 90 6.4 0.0 0.00 0.00 0.00 79 1065.6
20260508231115 8 112 4.8 0.0 0.00 0.00 0.00 79 1065.6
20260508230955 8 112 3.2 0.0 0.00 0.00 0.00 79 1065.6
20260508230849 8 135 6.4 0.0 0.00 0.00 0.00 79 1065.6
20260508230729 8 112 3.2 0.0 0.00 0.00 0.00 79 1065.6
20260508230617 8 135 8.0 0.0 0.00 0.00 0.00 79 1065.6
20260508230502 8 135 4.8 0.0 0.00 0.00 0.00 79 1065.6
20260508230349 8 135 6.4 0.0 0.00 0.00 0.00 79 1065.6
20260508230230 8 135 6.4 0.0 0.00 0.00 0.00 79 1065.6
20260508230126 8 135 1.6 0.0 0.00 0.00 0.00 79 1065.6
20260508230017 8 135 4.8 0.0 0.00 0.00 0.00 79 1065.5
20260508225904 8 135 6.4 0.0 0.00 0.00 0.00 79 1065.5
20260508225754 8 135 8.0 0.0 0.00 0.00 0.00 80 1065.6
20260508225639 8 135 9.7 0.0 0.00 0.00 0.00 80 1065.5
20260508225534 8 135 3.2 0.0 0.00 0.00 0.00 80 1065.5
20260508225431 8 135 3.2 0.0 0.00 0.00 0.00 80 1065.6
20260508225325 8 135 3.2 0.0 0.00 0.00 0.00 80 1065.5
20260508225218 8 135 4.8 0.0 0.00 0.00 0.00 81 1065.6
20260508225057 8 112 3.2 0.0 0.00 0.00 0.00 81 1065.5
20260508224935 8 135 6.4 0.0 0.00 0.00 0.00 81 1065.5
20260508224814 8 112 8.0 0.0 0.00 0.00 0.00 81 1065.5
20260508224702 8 112 4.8 0.0 0.00 0.00 0.00 81 1065.5
20260508224557 8 135 8.0 0.0 0.00 0.00 0.00 81 1065.5
20260508224443 8 135 6.4 0.0 0.00 0.00 0.00 81 1065.5
20260508224322 8 135 8.0 0.0 0.00 0.00 0.00 81 1065.6
20260508224217 8 135 0.0 0.0 0.00 0.00 0.00 81 1065.5
20260508224058 8 135 0.0 0.0 0.00 0.00 0.00 81 1065.5
20260508223951 8 135 4.8 0.0 0.00 0.00 0.00 81 1065.6
20260508223837 8 135 3.2 0.0 0.00 0.00 0.00 81 1065.6
20260508223726 8 135 6.4 0.0 0.00 0.00 0.00 81 1065.6
20260508223619 8 157 4.8 0.0 0.00 0.00 0.00 80 1065.6
20260508223458 8 135 0.0 0.0 0.00 0.00 0.00 80 1065.6
20260508223329 8 135 0.0 0.0 0.00 0.00 0.00 80 1065.6
20260508223216 8 112 0.0 0.0 0.00 0.00 0.00 80 1065.6
20260508223054 8 112 0.0 0.0 0.00 0.00 0.00 80 1065.6
20260508222925 8 112 0.0 0.0 0.00 0.00 0.00 80 1065.6
20260508222812 8 112 0.0 0.0 0.00 0.00 0.00 80 1065.6
20260508222650 8 112 0.0 0.0 0.00 0.00 0.00 80 1065.6
20260508222529 8 112 0.0 0.0 0.00 0.00 0.00 80 1065.6
20260508222408 8 112 0.0 0.0 0.00 0.00 0.00 80 1065.6
20260508222258 8 112 0.0 0.0 0.00 0.00 0.00 79 1065.6
20260508222149 8 112 0.0 0.0 0.00 0.00 0.00 79 1065.6
20260508222031 8 90 0.0 0.0 0.00 0.00 0.00 79 1065.6
20260508221924 8 90 0.0 0.0 0.00 0.00 0.00 79 1065.6
20260508221810 8 90 0.0 0.0 0.00 0.00 0.00 79 1065.7
20260508221649 8 90 0.0 0.0 0.00 0.00 0.00 79 1065.7
20260508221521 8 90 0.0 0.0 0.00 0.00 0.00 79 1065.7
20260508221415 8 90 0.0 0.0 0.00 0.00 0.00 79 1065.6
20260508221302 8 90 3.2 0.0 0.00 0.00 0.00 79 1065.6
20260508221140 8 90 6.4 0.0 0.00 0.00 0.00 79 1065.6
20260508221019 8 90 4.8 0.0 0.00 0.00 0.00 79 1065.6
20260508220850 9 90 0.0 0.0 0.00 0.00 0.00 78 1065.6
20260508220738 9 112 0.0 0.0 0.00 0.00 0.00 78 1065.5
20260508220633 9 90 0.0 0.0 0.00 0.00 0.00 78 1065.6
20260508220527 9 90 0.0 0.0 0.00 0.00 0.00 78 1065.6
20260508220405 9 90 0.0 0.0 0.00 0.00 0.00 77 1065.6
20260508220251 9 90 0.0 0.0 0.00 0.00 0.00 77 1065.6
20260508220130 9 90 0.0 0.0 0.00 0.00 0.00 77 1065.6
20260508220022 9 112 3.2 0.0 0.00 0.00 0.00 77 1065.6
20260508215900 9 90 6.4 0.0 0.00 0.00 0.00 77 1065.6
20260508215746 9 90 6.4 0.0 0.00 0.00 0.00 77 1065.6
20260508215641 9 67 0.0 0.0 0.00 0.00 0.00 77 1065.6
20260508215535 9 90 0.0 0.0 0.00 0.00 0.00 77 1065.6
20260508215419 9 90 3.2 0.0 0.00 0.00 0.00 77 1065.6
20260508215259 9 67 4.8 0.0 0.00 0.00 0.00 77 1065.6
20260508215150 9 90 4.8 0.0 0.00 0.00 0.00 77 1065.6
20260508215029 9 90 6.4 0.0 0.00 0.00 0.00 76 1065.6
20260508214917 9 90 6.4 0.0 0.00 0.00 0.00 76 1065.6
20260508214808 9 112 6.4 0.0 0.00 0.00 0.00 76 1065.6
20260508214656 9 90 4.8 0.0 0.00 0.00 0.00 76 1065.5
20260508214548 9 112 8.0 0.0 0.00 0.00 0.00 76 1065.6
20260508214435 9 90 4.8 0.0 0.00 0.00 0.00 76 1065.6
20260508214329 9 112 4.8 0.0 0.00 0.00 0.00 76 1065.5
20260508214210 9 90 0.0 0.0 0.00 0.00 0.00 76 1065.6
20260508214055 9 90 0.0 0.0 0.00 0.00 0.00 76 1065.6
20260508213942 9 90 9.7 0.0 0.00 0.00 0.00 76 1065.6
20260508213837 9 90 8.0 0.0 0.00 0.00 0.00 76 1065.6
20260508213724 9 90 6.4 0.0 0.00 0.00 0.00 76 1065.6
20260508213610 9 112 9.7 0.0 0.00 0.00 0.00 76 1065.6
20260508213448 9 112 6.4 0.0 0.00 0.00 0.00 76 1065.6
20260508213334 9 112 8.0 0.0 0.00 0.00 0.00 76 1065.6
20260508213212 9 90 9.7 0.0 0.00 0.00 0.00 76 1065.7
20260508213058 9 90 6.4 0.0 0.00 0.00 0.00 76 1065.7
20260508212952 9 90 8.0 0.0 0.00 0.00 0.00 76 1065.7
20260508212846 9 90 4.8 0.0 0.00 0.00 0.00 77 1065.6
20260508212734 9 90 3.2 0.0 0.00 0.00 0.00 77 1065.6
20260508212625 9 112 3.2 0.0 0.00 0.00 0.00 77 1065.7
20260508212503 9 90 6.4 0.0 0.00 0.00 0.00 77 1065.7
20260508212349 9 90 6.4 0.0 0.00 0.00 0.00 77 1065.7
20260508212243 9 90 6.4 0.0 0.00 0.00 0.00 77 1065.7
20260508212136 9 90 8.0 0.0 0.00 0.00 0.00 77 1065.8
20260508212006 9 90 8.0 0.0 0.00 0.00 0.00 77 1065.7
20260508211852 9 90 6.4 0.0 0.00 0.00 0.00 77 1065.7
20260508211746 9 90 6.4 0.0 0.00 0.00 0.00 77 1065.8
20260508211639 9 67 4.8 0.0 0.00 0.00 0.00 77 1065.8
20260508211511 9 67 0.0 0.0 0.00 0.00 0.00 77 1065.8
20260508211405 9 90 6.4 0.0 0.00 0.00 0.00 77 1065.8
20260508211258 9 90 8.0 0.0 0.00 0.00 0.00 77 1065.8
20260508211151 9 90 8.0 0.0 0.00 0.00 0.00 77 1065.8
20260508211037 9 90 8.0 0.0 0.00 0.00 0.00 77 1065.8
20260508210922 8 90 4.8 0.0 0.00 0.00 0.00 77 1065.8
20260508210803 8 90 8.0 0.0 0.00 0.00 0.00 77 1065.8
20260508210654 8 90 6.4 0.0 0.00 0.00 0.00 77 1065.8
20260508210540 8 90 4.8 0.0 0.00 0.00 0.00 77 1065.8
20260508210435 8 112 3.2 0.0 0.00 0.00 0.00 77 1065.8
20260508210328 8 112 3.2 0.0 0.00 0.00 0.00 77 1065.8
20260508210222 8 90 0.0 0.0 0.00 0.00 0.00 77 1065.7
20260508210116 8 90 0.0 0.0 0.00 0.00 0.00 77 1065.7
20260508210010 8 90 6.4 0.0 0.00 0.00 0.00 77 1065.7
20260508205904 9 67 3.2 0.0 0.00 0.00 0.00 76 1065.7
20260508205741 9 90 0.0 0.0 0.00 0.00 0.00 76 1065.7
20260508205620 9 90 0.0 0.0 0.00 0.00 0.00 76 1065.7
20260508205513 9 90 3.2 0.0 0.00 0.00 0.00 76 1065.7
20260508205352 9 90 0.0 0.0 0.00 0.00 0.00 76 1065.7
20260508205236 9 90 0.0 0.0 0.00 0.00 0.00 76 1065.8
20260508205121 9 90 0.0 0.0 0.00 0.00 0.00 76 1065.7
20260508205000 9 90 0.0 0.0 0.00 0.00 0.00 76 1065.7
20260508204845 9 90 0.0 0.0 0.00 0.00 0.00 76 1065.7
20260508204732 9 112 3.2 0.0 0.00 0.00 0.00 75 1065.7
20260508204626 9 112 0.0 0.0 0.00 0.00 0.00 75 1065.6
20260508204459 9 67 0.0 0.0 0.00 0.00 0.00 76 1065.7
20260508204350 9 67 0.0 0.0 0.00 0.00 0.00 75 1065.7
20260508204229 9 67 0.0 0.0 0.00 0.00 0.00 76 1065.8
20260508204114 9 67 0.0 0.0 0.00 0.00 0.00 75 1065.8
20260508204000 9 67 0.0 0.0 0.00 0.00 0.00 75 1065.8
20260508203831 9 45 0.0 0.0 0.00 0.00 0.00 75 1065.8
20260508203718 10 90 0.0 0.0 0.00 0.00 0.00 75 1065.8
20260508203605 10 45 0.0 0.0 0.00 0.00 0.00 75 1065.8
20260508203500 10 45 0.0 0.0 0.00 0.00 0.00 75 1065.8
20260508203340 10 45 0.0 0.0 0.00 0.00 0.00 75 1065.8
20260508203235 10 45 0.0 0.0 0.00 0.00 0.00 75 1065.8
20260508203121 10 67 0.0 0.0 0.00 0.00 0.00 75 1065.7
20260508203008 10 67 0.0 0.0 0.00 0.00 0.00 75 1065.7
20260508202901 10 67 0.0 0.0 0.00 0.00 0.00 75 1065.7
20260508202744 10 67 0.0 0.0 0.00 0.00 0.00 75 1065.7
20260508202628 10 67 0.0 0.0 0.00 0.00 0.00 76 1065.7
20260508202515 10 90 4.8 0.0 0.00 0.00 0.00 76 1065.7
20260508202409 10 90 6.4 0.0 0.00 0.00 0.00 76 1065.7
20260508202241 10 45 0.0 0.0 0.00 0.00 0.00 76 1065.7
20260508202127 10 90 0.0 0.0 0.00 0.00 0.00 76 1065.7
20260508202006 10 112 6.4 0.0 0.00 0.00 0.00 76 1065.6
20260508201854 10 90 4.8 0.0 0.00 0.00 0.00 76 1065.6
20260508201748 10 90 0.0 0.0 0.00 0.00 0.00 76 1065.6
20260508201635 10 90 6.4 0.0 0.00 0.00 0.00 76 1065.6
20260508201530 10 90 0.0 0.0 0.00 0.00 0.00 76 1065.6
20260508201424 10 90 0.0 0.0 0.00 0.00 0.00 77 1065.6
20260508201318 10 67 1.6 0.0 0.00 0.00 0.00 77 1065.6
20260508201213 10 67 0.0 0.0 0.00 0.00 0.00 77 1065.5
20260508201107 10 67 6.4 0.0 0.00 0.00 0.00 77 1065.6
20260508201001 10 67 0.0 0.0 0.00 0.00 0.00 78 1065.6
20260508200854 10 90 4.8 0.0 0.00 0.00 0.00 78 1065.5
20260508200731 10 112 11.3 0.0 0.00 0.00 0.00 78 1065.5
20260508200611 10 67 8.0 0.0 0.00 0.00 0.00 78 1065.5
20260508200450 10 90 8.0 0.0 0.00 0.00 0.00 78 1065.5
20260508200345 10 90 3.2 0.0 0.00 0.00 0.00 78 1065.5
20260508200230 10 90 12.9 0.0 0.00 0.00 0.00 78 1065.5
20260508200121 10 67 9.7 0.0 0.00 0.00 0.00 78 1065.5
20260508200013 10 67 4.8 0.0 0.00 0.00 0.00 78 1065.5
20260508195900 10 67 0.0 0.0 0.00 0.00 0.00 78 1065.5
20260508195749 10 67 3.2 0.0 0.00 0.00 0.00 78 1065.5
20260508195642 10 67 6.4 0.0 0.00 0.00 0.00 78 1065.5
20260508195529 10 45 9.7 0.0 0.00 0.00 0.00 78 1065.5
20260508195416 10 45 6.4 0.0 0.00 0.00 0.00 78 1065.5
20260508195311 10 90 11.3 0.0 0.00 0.00 0.00 79 1065.5
20260508195158 10 67 0.0 0.0 0.00 0.00 0.00 79 1065.5
20260508195045 10 67 0.0 0.0 0.00 0.00 0.00 79 1065.5
20260508194934 10 90 0.0 0.0 0.00 0.00 0.00 79 1065.5
20260508194829 10 90 8.0 0.0 0.00 0.00 0.00 79 1065.5
20260508194721 10 90 0.0 0.0 0.00 0.00 0.00 79 1065.4
20260508194608 10 67 6.4 0.0 0.00 0.00 0.00 79 1065.4
20260508194442 10 67 4.8 0.0 0.00 0.00 0.00 79 1065.5
20260508194334 10 67 0.0 0.0 0.00 0.00 0.00 79 1065.4
20260508194222 10 90 9.7 0.0 0.00 0.00 0.00 79 1065.5
20260508194115 10 67 9.7 0.0 0.00 0.00 0.00 79 1065.4
20260508193955 10 90 11.3 0.0 0.00 0.00 0.00 79 1065.4
20260508193852 10 45 8.0 0.0 0.00 0.00 0.00 78 1065.4
20260508193745 10 90 3.2 0.0 0.00 0.00 0.00 78 1065.4
20260508193632 10 67 3.2 0.0 0.00 0.00 0.00 78 1065.3
20260508193519 10 112 11.3 0.0 0.00 0.00 0.00 78 1065.4
20260508193406 10 67 9.7 0.0 0.00 0.00 0.00 78 1065.4
20260508193252 10 67 3.2 0.0 0.00 0.00 0.00 77 1065.3
20260508193136 10 67 0.0 0.0 0.00 0.00 0.00 77 1065.2
20260508193021 10 90 0.0 0.0 0.00 0.00 0.00 77 1065.3
20260508192851 10 90 9.7 0.0 0.00 0.00 0.00 77 1065.2
20260508192737 10 90 0.0 0.0 0.00 0.00 0.00 76 1065.3
20260508192631 10 90 3.2 0.0 0.00 0.00 0.00 76 1065.3
20260508192523 10 90 9.7 0.0 0.00 0.00 0.00 76 1065.3
20260508192403 10 90 0.0 0.0 0.00 0.00 0.00 75 1065.2
20260508192242 11 90 8.0 0.0 0.00 0.00 0.00 75 1065.2
20260508192136 11 90 8.0 0.0 0.00 0.00 0.00 75 1065.2
20260508192016 11 45 11.3 0.0 0.00 0.00 0.00 74 1065.2
20260508191910 11 67 0.0 0.0 0.00 0.00 0.00 74 1065.2
20260508191757 11 67 9.7 0.0 0.00 0.00 0.00 73 1065.2
20260508191644 11 67 9.7 0.0 0.00 0.00 0.00 73 1065.2
20260508191531 11 112 0.0 0.0 0.00 0.00 0.00 73 1065.2
20260508191410 11 90 8.0 0.0 0.00 0.00 0.00 72 1065.2
20260508191248 11 90 0.0 0.0 0.00 0.00 0.00 72 1065.1
20260508191128 11 112 12.9 0.0 0.00 0.00 0.00 71 1065.2
20260508191024 11 67 8.0 0.0 0.00 0.00 0.00 71 1065.2
20260508190917 11 45 14.5 0.0 0.00 0.00 0.00 71 1065.2
20260508190810 11 67 0.0 0.0 0.00 0.00 0.00 71 1065.2
20260508190658 11 67 9.7 0.0 0.00 0.00 0.00 71 1065.1
20260508190544 11 90 14.5 0.0 0.00 0.00 0.00 71 1065.2
20260508190422 11 112 8.0 0.0 0.00 0.00 0.00 70 1065.1
20260508190301 11 67 0.0 0.0 0.00 0.00 0.00 70 1065.1
20260508190148 12 45 0.0 0.0 0.00 0.00 0.00 69 1065.2
20260508190034 12 67 9.7 0.0 0.00 0.00 0.00 69 1065.1
20260508185922 12 67 0.0 0.0 0.00 0.00 0.00 69 1065.1
20260508185817 12 67 0.0 0.0 0.00 0.00 0.00 68 1065.1
20260508185656 12 90 3.2 0.0 0.00 0.00 0.00 68 1065.0
20260508185543 12 67 3.2 0.0 0.00 0.00 0.00 68 1065.1
20260508185430 12 67 9.7 0.0 0.00 0.00 0.00 68 1065.1
20260508185323 12 67 11.3 0.0 0.00 0.00 0.00 68 1065.0
20260508185212 12 90 0.0 0.0 0.00 0.00 0.00 68 1065.0
20260508185050 12 67 8.0 0.0 0.00 0.00 0.00 67 1065.0
20260508184938 12 45 0.0 0.0 0.00 0.00 0.00 67 1065.0
20260508184832 12 90 0.0 0.0 0.00 0.00 0.00 67 1065.0
20260508184712 12 90 8.0 0.0 0.00 0.00 0.00 67 1065.0
20260508184600 12 112 8.0 0.0 0.00 0.00 0.00 67 1065.1
20260508184452 12 22 11.3 0.0 0.00 0.00 0.00 67 1065.0
20260508184338 13 112 9.7 0.0 0.00 0.00 0.00 66 1065.0
20260508184212 13 45 0.0 0.0 0.00 0.00 0.00 66 1065.1
20260508184108 13 45 12.9 0.0 0.00 0.00 0.00 66 1065.1
20260508184000 13 90 11.3 0.0 0.00 0.00 0.00 66 1065.0
20260508183846 13 67 8.0 0.0 0.00 0.00 0.00 65 1065.0
20260508183717 13 45 14.5 0.0 0.00 0.00 0.00 65 1064.9
20260508183607 13 90 4.8 0.0 0.00 0.00 0.00 65 1064.9
20260508183501 13 90 8.0 0.0 0.00 0.00 0.00 65 1064.9
20260508183355 13 112 16.1 0.0 0.00 0.00 0.00 65 1065.0
20260508183240 13 45 0.0 0.0 0.00 0.00 0.00 65 1065.0
20260508183120 13 67 0.0 0.0 0.00 0.00 0.00 65 1064.9
20260508182959 13 90 8.0 0.0 0.00 0.00 0.00 65 1064.9
20260508182840 13 67 0.0 0.0 0.00 0.00 0.00 65 1064.9
20260508182733 13 112 9.7 0.0 0.00 0.00 0.00 65 1065.0
20260508182620 13 90 11.3 0.0 0.00 0.00 0.00 65 1064.9
20260508182506 13 90 9.7 0.0 0.00 0.00 0.00 65 1064.8
20260508182353 13 45 3.2 0.0 0.00 0.00 0.00 64 1064.8
20260508182232 13 67 14.5 0.0 0.00 0.00 0.00 64 1064.8
20260508182110 13 90 6.4 0.0 0.00 0.00 0.00 64 1064.8
20260508181956 13 67 16.1 0.0 0.00 0.00 0.00 64 1064.7
20260508181842 13 45 6.4 0.0 0.00 0.00 0.00 64 1064.9
20260508181736 13 67 1.6 0.0 0.00 0.00 0.00 64 1064.8
20260508181623 13 67 12.9 0.0 0.00 0.00 0.00 64 1064.8
20260508181503 13 112 14.5 0.0 0.00 0.00 0.00 63 1064.8
20260508181350 13 90 14.5 0.0 0.00 0.00 0.00 63 1064.8
20260508181244 13 67 0.0 0.0 0.00 0.00 0.00 63 1064.8
20260508181133 13 22 17.7 0.0 0.00 0.00 0.00 63 1064.8
20260508181018 14 90 11.3 0.0 0.00 0.00 0.00 63 1064.8
20260508180905 14 67 14.5 0.0 0.00 0.00 0.00 63 1064.8
20260508180751 14 90 14.5 0.0 0.00 0.00 0.00 63 1064.9
20260508180623 14 45 16.1 0.0 0.00 0.00 0.00 63 1064.8
20260508180510 14 67 12.9 0.0 0.00 0.00 0.00 62 1064.9
20260508180404 14 90 6.4 0.0 0.00 0.00 0.00 62 1064.9
20260508180251 14 90 16.1 0.0 0.00 0.00 0.00 62 1064.9
20260508180130 14 112 6.4 0.0 0.00 0.00 0.00 62 1064.9
20260508180017 14 45 16.1 0.0 0.00 0.00 0.00 62 1064.8
20260508175855 14 22 14.5 0.0 0.00 0.00 0.00 61 1064.7
20260508175734 14 90 8.0 0.0 0.00 0.00 0.00 61 1064.7
20260508175605 14 90 8.0 0.0 0.00 0.00 0.00 61 1064.7
20260508175452 14 67 9.7 0.0 0.00 0.00 0.00 61 1064.7
20260508175346 14 90 12.9 0.0 0.00 0.00 0.00 61 1064.7
20260508175234 14 67 0.0 0.0 0.00 0.00 0.00 60 1064.7
20260508175113 14 22 9.7 0.0 0.00 0.00 0.00 60 1064.7
20260508175000 15 90 17.7 0.0 0.00 0.00 0.00 60 1064.7
20260508174847 14 67 17.7 0.0 0.00 0.00 0.00 60 1064.7
20260508174725 15 90 19.3 0.0 0.00 0.00 0.00 59 1064.6
20260508174612 15 67 9.7 0.0 0.00 0.00 0.00 59 1064.6
20260508174507 15 112 0.0 0.0 0.00 0.00 0.00 59 1064.6
20260508174356 15 112 16.1 0.0 0.00 0.00 0.00 58 1064.6
20260508174250 15 67 0.0 0.0 0.00 0.00 0.00 58 1064.7
20260508174136 15 90 12.9 0.0 0.00 0.00 0.00 58 1064.6
20260508174024 15 90 0.0 0.0 0.00 0.00 0.00 58 1064.7
20260508173912 15 90 19.3 0.0 0.00 0.00 0.00 58 1064.6
20260508173750 15 90 9.7 0.0 0.00 0.00 0.00 58 1064.7
20260508173632 15 67 9.7 0.0 0.00 0.00 0.00 58 1064.6
20260508173525 15 45 6.4 0.0 0.00 0.00 0.00 58 1064.7
20260508173348 15 90 0.0 0.0 0.00 0.00 0.00 57 1064.6
20260508173227 15 22 11.3 0.0 0.00 0.00 0.00 57 1064.7
20260508173116 15 45 9.7 0.0 0.00 0.00 0.00 57 1064.6
20260508173009 15 45 17.7 0.0 0.00 0.00 0.00 56 1064.6
20260508172856 15 90 11.3 0.0 0.00 0.00 0.00 56 1064.6
20260508172752 15 45 8.0 0.0 0.00 0.00 0.00 56 1064.6
20260508172646 15 90 6.4 0.0 0.00 0.00 0.00 56 1064.6
20260508172542 15 112 11.3 0.0 0.00 0.00 0.00 55 1064.6
20260508172436 15 90 24.1 0.0 0.00 0.00 0.00 55 1064.6
20260508172333 15 22 11.3 0.0 0.00 0.00 0.00 55 1064.6
20260508172226 15 45 8.0 0.0 0.00 0.00 0.00 55 1064.5
20260508172112 15 45 9.7 0.0 0.00 0.00 0.00 55 1064.5
20260508171959 15 45 12.9 0.0 0.00 0.00 0.00 55 1064.5
20260508171846 15 90 9.7 0.0 0.00 0.00 0.00 55 1064.5
20260508171733 15 22 11.3 0.0 0.00 0.00 0.00 55 1064.5
20260508171622 15 112 17.7 0.0 0.00 0.00 0.00 54 1064.5
20260508171514 15 67 3.2 0.0 0.00 0.00 0.00 54 1064.5
20260508171404 15 90 0.0 0.0 0.00 0.00 0.00 54 1064.5
20260508171257 15 45 0.0 0.0 0.00 0.00 0.00 54 1064.5
20260508171144 15 90 14.5 0.0 0.00 0.00 0.00 54 1064.4
20260508171031 16 45 11.3 0.0 0.00 0.00 0.00 53 1064.4
20260508170927 16 67 9.7 0.0 0.00 0.00 0.00 53 1064.4
20260508170820 16 67 9.7 0.0 0.00 0.00 0.00 53 1064.4
20260508170659 16 67 6.4 0.0 0.00 0.00 0.00 52 1064.4
20260508170539 16 112 9.7 0.0 0.00 0.00 0.00 52 1064.4
20260508170435 16 90 12.9 0.0 0.00 0.00 0.00 51 1064.4
20260508170328 16 90 9.7 0.0 0.00 0.00 0.00 51 1064.4
20260508170214 16 112 11.3 0.0 0.00 0.00 0.00 51 1064.4
20260508170103 16 67 17.7 0.0 0.00 0.00 0.00 51 1064.4
20260508165949 16 67 12.9 0.0 0.00 0.00 0.00 51 1064.4
20260508165819 16 90 9.7 0.0 0.00 0.00 0.00 50 1064.4
20260508165658 16 90 9.7 0.0 0.00 0.00 0.00 49 1064.3
20260508165536 16 112 14.5 0.0 0.00 0.00 0.00 49 1064.3
20260508165416 16 67 9.7 0.0 0.00 0.00 0.00 49 1064.3
20260508165255 16 45 6.4 0.0 0.00 0.00 0.00 49 1064.3
20260508165150 16 45 11.3 0.0 0.00 0.00 0.00 49 1064.3
20260508165044 16 22 11.3 0.0 0.00 0.00 0.00 50 1064.3
20260508164923 16 90 6.4 0.0 0.00 0.00 0.00 50 1064.3
20260508164810 16 67 11.3 0.0 0.00 0.00 0.00 50 1064.3
20260508164649 16 90 14.5 0.0 0.00 0.00 0.00 51 1064.3
20260508164536 16 45 11.3 0.0 0.00 0.00 0.00 51 1064.3
20260508164430 16 90 9.7 0.0 0.00 0.00 0.00 51 1064.3
20260508164317 16 90 12.9 0.0 0.00 0.00 0.00 51 1064.2
20260508164156 16 90 6.4 0.0 0.00 0.00 0.00 51 1064.3
20260508164043 16 112 20.9 0.0 0.00 0.00 0.00 51 1064.3
20260508163924 16 67 24.1 0.0 0.00 0.00 0.00 51 1064.2
20260508163809 16 45 9.7 0.0 0.00 0.00 0.00 51 1064.3
20260508163647 16 67 3.2 0.0 0.00 0.00 0.00 51 1064.3
20260508163527 16 135 14.5 0.0 0.00 0.00 0.00 50 1064.3
20260508163415 16 45 11.3 0.0 0.00 0.00 0.00 50 1064.3
20260508163254 16 67 9.7 0.0 0.00 0.00 0.00 49 1064.3
20260508163140 16 45 14.5 0.0 0.00 0.00 0.00 49 1064.3
20260508163028 16 45 19.3 0.0 0.00 0.00 0.00 50 1064.3
20260508162917 16 67 0.0 0.0 0.00 0.00 0.00 50 1064.3
20260508162809 16 112 16.1 0.0 0.00 0.00 0.00 49 1064.3
20260508162648 16 90 14.5 0.0 0.00 0.00 0.00 49 1064.4
20260508162535 17 90 17.7 0.0 0.00 0.00 0.00 49 1064.3
20260508162430 17 67 11.3 0.0 0.00 0.00 0.00 49 1064.4
20260508162309 17 112 24.1 0.0 0.00 0.00 0.00 49 1064.3
20260508162148 17 67 16.1 0.0 0.00 0.00 0.00 49 1064.4
20260508162034 17 45 12.9 0.0 0.00 0.00 0.00 48 1064.4
20260508161915 17 67 17.7 0.0 0.00 0.00 0.00 49 1064.3
20260508161808 17 90 14.5 0.0 0.00 0.00 0.00 49 1064.2
20260508161654 17 22 4.8 0.0 0.00 0.00 0.00 48 1064.3
20260508161535 17 67 11.3 0.0 0.00 0.00 0.00 47 1064.3
20260508161421 17 90 9.7 0.0 0.00 0.00 0.00 48 1064.2
20260508161308 17 112 16.1 0.0 0.00 0.00 0.00 49 1064.2
20260508161201 17 45 8.0 0.0 0.00 0.00 0.00 49 1064.2
20260508161041 17 45 8.0 0.0 0.00 0.00 0.00 48 1064.2
20260508160926 17 67 6.4 0.0 0.00 0.00 0.00 47 1064.2
20260508160814 17 112 20.9 0.0 0.00 0.00 0.00 47 1064.3
20260508160710 17 67 12.9 0.0 0.00 0.00 0.00 47 1064.2
20260508160603 17 45 9.7 0.0 0.00 0.00 0.00 46 1064.2
20260508160442 17 112 9.7 0.0 0.00 0.00 0.00 46 1064.2
20260508160329 17 45 14.5 0.0 0.00 0.00 0.00 45 1064.2
20260508160216 17 67 14.5 0.0 0.00 0.00 0.00 45 1064.2
20260508160054 17 45 8.0 0.0 0.00 0.00 0.00 45 1064.2
20260508155941 17 112 19.3 0.0 0.00 0.00 0.00 44 1064.2
20260508155828 17 67 8.0 0.0 0.00 0.00 0.00 44 1064.2
20260508155723 17 67 17.7 0.0 0.00 0.00 0.00 44 1064.2
20260508155612 17 45 8.0 0.0 0.00 0.00 0.00 44 1064.2
20260508155505 17 67 16.1 0.0 0.00 0.00 0.00 44 1064.2
20260508155352 17 90 29.0 0.0 0.00 0.00 0.00 44 1064.2
20260508155239 17 90 17.7 0.0 0.00 0.00 0.00 44 1064.2
20260508155126 17 90 11.3 0.0 0.00 0.00 0.00 44 1064.2
20260508155021 17 45 14.5 0.0 0.00 0.00 0.00 45 1064.2
20260508154859 17 67 25.7 0.0 0.00 0.00 0.00 49 1064.2
20260508154738 17 90 3.2 0.0 0.00 0.00 0.00 49 1064.2
20260508154625 17 90 8.0 0.0 0.00 0.00 0.00 49 1064.2
20260508154514 17 67 4.8 0.0 0.00 0.00 0.00 48 1064.2
20260508154359 17 45 22.5 0.0 0.00 0.00 0.00 48 1064.2
20260508154246 17 67 9.7 0.0 0.00 0.00 0.00 47 1064.3
20260508154141 17 22 27.4 0.0 0.00 0.00 0.00 48 1064.2
20260508154027 17 67 20.9 0.0 0.00 0.00 0.00 48 1064.2
20260508153908 17 45 19.3 0.0 0.00 0.00 0.00 46 1064.2
20260508153801 17 112 12.9 0.0 0.00 0.00 0.00 47 1064.2
20260508153648 17 90 19.3 0.0 0.00 0.00 0.00 47 1064.3
20260508153543 17 90 22.5 0.0 0.00 0.00 0.00 47 1064.2
20260508153421 17 90 12.9 0.0 0.00 0.00 0.00 48 1064.1
20260508153301 17 22 22.5 0.0 0.00 0.00 0.00 47 1064.1
20260508153155 17 45 17.7 0.0 0.00 0.00 0.00 47 1064.2
20260508153034 17 22 12.9 0.0 0.00 0.00 0.00 47 1064.1
20260508152913 17 45 12.9 0.0 0.00 0.00 0.00 46 1064.2
20260508152744 17 45 0.0 0.0 0.00 0.00 0.00 45 1064.2
20260508152631 17 67 16.1 0.0 0.00 0.00 0.00 43 1064.3
20260508152518 17 45 12.9 0.0 0.00 0.00 0.00 44 1064.3
20260508152405 17 67 17.7 0.0 0.00 0.00 0.00 45 1064.3
20260508152301 18 90 8.0 0.0 0.00 0.00 0.00 45 1064.2
20260508152147 18 90 4.8 0.0 0.00 0.00 0.00 45 1064.2
20260508152026 18 90 22.5 0.0 0.00 0.00 0.00 45 1064.3
20260508151921 18 67 19.3 0.0 0.00 0.00 0.00 45 1064.2
20260508151759 18 22 11.3 0.0 0.00 0.00 0.00 45 1064.2
20260508151647 18 67 8.0 0.0 0.00 0.00 0.00 45 1064.2
20260508151534 18 45 0.0 0.0 0.00 0.00 0.00 44 1064.2
20260508151414 18 90 9.7 0.0 0.00 0.00 0.00 45 1064.2
20260508151307 18 67 20.9 0.0 0.00 0.00 0.00 45 1064.2
20260508151157 18 90 12.9 0.0 0.00 0.00 0.00 45 1064.1
20260508151049 18 112 12.9 0.0 0.00 0.00 0.00 44 1064.2
20260508150929 18 45 25.7 0.0 0.00 0.00 0.00 44 1064.2
20260508150815 18 90 9.7 0.0 0.00 0.00 0.00 45 1064.2
20260508150702 18 22 17.7 0.0 0.00 0.00 0.00 45 1064.2
20260508150557 18 45 29.0 0.0 0.00 0.00 0.00 46 1064.1
20260508150435 18 45 19.3 0.0 0.00 0.00 0.00 46 1064.2
20260508150314 18 0 14.5 0.0 0.00 0.00 0.00 46 1064.2
20260508150201 18 45 9.7 0.0 0.00 0.00 0.00 45 1064.2
20260508150040 18 45 9.7 0.0 0.00 0.00 0.00 46 1064.2
20260508145927 18 45 0.0 0.0 0.00 0.00 0.00 45 1064.2
20260508145813 18 45 19.3 0.0 0.00 0.00 0.00 44 1064.3
20260508145700 18 90 12.9 0.0 0.00 0.00 0.00 44 1064.2
20260508145539 18 0 11.3 0.0 0.00 0.00 0.00 44 1064.2
20260508145426 18 67 14.5 0.0 0.00 0.00 0.00 43 1064.2
20260508145313 18 67 12.9 0.0 0.00 0.00 0.00 42 1064.2
20260508145202 18 67 16.1 0.0 0.00 0.00 0.00 42 1064.3
20260508145056 18 45 9.7 0.0 0.00 0.00 0.00 44 1064.2
20260508144950 18 67 11.3 0.0 0.00 0.00 0.00 45 1064.3
20260508144836 18 45 8.0 0.0 0.00 0.00 0.00 46 1064.2
20260508144716 17 90 20.9 0.0 0.00 0.00 0.00 46 1064.2
20260508144610 17 22 12.9 0.0 0.00 0.00 0.00 47 1064.2
20260508144457 17 0 11.3 0.0 0.00 0.00 0.00 46 1064.3
20260508144343 17 67 11.3 0.0 0.00 0.00 0.00 46 1064.3
20260508144225 18 90 20.9 0.0 0.00 0.00 0.00 46 1064.2
20260508144118 18 22 20.9 0.0 0.00 0.00 0.00 45 1064.2
20260508143956 18 45 11.3 0.0 0.00 0.00 0.00 45 1064.2
20260508143835 18 45 24.1 0.0 0.00 0.00 0.00 45 1064.2
20260508143715 18 90 19.3 0.0 0.00 0.00 0.00 45 1064.2
20260508143609 18 67 16.1 0.0 0.00 0.00 0.00 45 1064.3
20260508143504 18 22 0.0 0.0 0.00 0.00 0.00 44 1064.3
20260508143351 18 67 22.5 0.0 0.00 0.00 0.00 44 1064.4
20260508143230 18 45 27.4 0.0 0.00 0.00 0.00 44 1064.5
20260508143117 18 67 14.5 0.0 0.00 0.00 0.00 43 1064.4
20260508143013 18 112 12.9 0.0 0.00 0.00 0.00 42 1064.4
20260508142858 18 45 8.0 0.0 0.00 0.00 0.00 42 1064.4
20260508142746 18 90 27.4 0.0 0.00 0.00 0.00 45 1064.4
20260508142640 18 22 12.9 0.0 0.00 0.00 0.00 46 1064.4
20260508142519 18 67 22.5 0.0 0.00 0.00 0.00 45 1064.3
20260508142359 18 22 11.3 0.0 0.00 0.00 0.00 45 1064.4
20260508142253 18 337 6.4 0.0 0.00 0.00 0.00 44 1064.5
20260508142131 18 0 14.5 0.0 0.00 0.00 0.00 44 1064.6
20260508142012 18 45 6.4 0.0 0.00 0.00 0.00 44 1064.4
20260508141907 18 112 24.1 0.0 0.00 0.00 0.00 44 1064.5
20260508141755 18 0 20.9 0.0 0.00 0.00 0.00 44 1064.6
20260508141647 18 22 29.0 0.0 0.00 0.00 0.00 45 1064.5
20260508141534 18 90 12.9 0.0 0.00 0.00 0.00 44 1064.6
20260508141423 18 45 14.5 0.0 0.00 0.00 0.00 44 1064.6
20260508141310 18 112 19.3 0.0 0.00 0.00 0.00 44 1064.5
20260508141155 17 0 8.0 0.0 0.00 0.00 0.00 46 1064.5
20260508141042 17 67 9.7 0.0 0.00 0.00 0.00 47 1064.6
20260508140929 17 45 9.7 0.0 0.00 0.00 0.00 48 1064.5
20260508140825 17 45 12.9 0.0 0.00 0.00 0.00 48 1064.5
20260508140719 17 22 14.5 0.0 0.00 0.00 0.00 47 1064.6
20260508140559 17 0 14.5 0.0 0.00 0.00 0.00 47 1064.6
20260508140453 17 45 16.1 0.0 0.00 0.00 0.00 46 1064.7
20260508140339 17 67 20.9 0.0 0.00 0.00 0.00 46 1064.7
20260508140218 16 0 3.2 0.0 0.00 0.00 0.00 47 1064.7
20260508140105 16 0 19.3 0.0 0.00 0.00 0.00 47 1064.7
20260508135952 16 45 12.9 0.0 0.00 0.00 0.00 47 1064.8
20260508135847 16 45 17.7 0.0 0.00 0.00 0.00 48 1064.8
20260508135729 16 45 19.3 0.0 0.00 0.00 0.00 48 1064.7
20260508135624 16 45 17.7 0.0 0.00 0.00 0.00 48 1064.7
20260508135507 16 67 8.0 0.0 0.00 0.00 0.00 47 1064.8
20260508135354 16 90 6.4 0.0 0.00 0.00 0.00 46 1064.8
20260508135233 16 45 25.7 0.0 0.00 0.00 0.00 46 1064.8
20260508135112 16 22 19.3 0.0 0.00 0.00 0.00 47 1064.8
20260508135008 16 45 37.0 0.0 0.00 0.00 0.00 50 1064.8
20260508134901 16 45 14.5 0.0 0.00 0.00 0.00 50 1064.7
20260508134741 16 112 9.7 0.0 0.00 0.00 0.00 51 1064.8
20260508134635 16 45 17.7 0.0 0.00 0.00 0.00 50 1064.7
20260508134521 16 90 20.9 0.0 0.00 0.00 0.00 49 1064.8
20260508134408 16 45 12.9 0.0 0.00 0.00 0.00 50 1064.8
20260508134255 16 45 14.5 0.0 0.00 0.00 0.00 49 1064.8
20260508134142 16 22 12.9 0.0 0.00 0.00 0.00 50 1064.7
20260508134029 16 45 27.4 0.0 0.00 0.00 0.00 49 1064.7
20260508133916 16 22 8.0 0.0 0.00 0.00 0.00 49 1064.8
20260508133810 16 67 24.1 0.0 0.00 0.00 0.00 50 1064.8
20260508133650 16 45 0.0 0.0 0.00 0.00 0.00 50 1064.7
20260508133536 16 90 22.5 0.0 0.00 0.00 0.00 50 1064.8
20260508133426 16 67 20.9 0.0 0.00 0.00 0.00 50 1064.8
20260508133319 16 67 12.9 0.0 0.00 0.00 0.00 49 1064.8
20260508133214 16 45 11.3 0.0 0.00 0.00 0.00 49 1064.7
20260508133107 16 0 17.7 0.0 0.00 0.00 0.00 50 1064.7
20260508133002 16 45 0.0 0.0 0.00 0.00 0.00 49 1064.7
20260508132857 16 45 19.3 0.0 0.00 0.00 0.00 49 1064.7
20260508132744 16 45 14.5 0.0 0.00 0.00 0.00 50 1064.7
20260508132639 16 67 30.6 0.0 0.00 0.00 0.00 50 1064.7
20260508132525 16 90 11.3 0.0 0.00 0.00 0.00 51 1064.8
20260508132413 16 90 11.3 0.0 0.00 0.00 0.00 50 1064.8
20260508132300 16 0 16.1 0.0 0.00 0.00 0.00 51 1064.8
20260508132154 16 45 16.1 0.0 0.00 0.00 0.00 52 1064.8
20260508132042 16 67 0.0 0.0 0.00 0.00 0.00 52 1064.8
20260508131936 16 90 6.4 0.0 0.00 0.00 0.00 51 1064.8
20260508131815 16 45 22.5 0.0 0.00 0.00 0.00 51 1064.8
20260508131653 16 112 19.3 0.0 0.00 0.00 0.00 51 1064.8
20260508131541 16 112 17.7 0.0 0.00 0.00 0.00 51 1064.8
20260508131428 16 90 25.7 0.0 0.00 0.00 0.00 52 1064.9
20260508131314 16 45 11.3 0.0 0.00 0.00 0.00 51 1064.8
20260508131209 16 67 8.0 0.0 0.00 0.00 0.00 51 1064.8
20260508131040 16 45 24.1 0.0 0.00 0.00 0.00 52 1064.9
20260508130927 16 90 27.4 0.0 0.00 0.00 0.00 52 1064.9
20260508130822 16 45 12.9 0.0 0.00 0.00 0.00 52 1064.9
20260508130700 16 45 11.3 0.0 0.00 0.00 0.00 51 1064.8
20260508130548 16 22 19.3 0.0 0.00 0.00 0.00 50 1064.8
20260508130435 16 45 9.7 0.0 0.00 0.00 0.00 50 1064.9
20260508130330 16 90 27.4 0.0 0.00 0.00 0.00 51 1064.9
20260508130224 16 0 14.5 0.0 0.00 0.00 0.00 51 1064.9
20260508130113 16 45 0.0 0.0 0.00 0.00 0.00 51 1064.9
20260508130008 16 45 14.5 0.0 0.00 0.00 0.00 50 1064.9
20260508125901 16 22 20.9 0.0 0.00 0.00 0.00 51 1064.9
20260508125748 16 45 17.7 0.0 0.00 0.00 0.00 52 1064.8
20260508125627 16 45 6.4 0.0 0.00 0.00 0.00 52 1064.9
20260508125522 16 67 8.0 0.0 0.00 0.00 0.00 52 1064.9
20260508125409 16 67 0.0 0.0 0.00 0.00 0.00 51 1064.9
20260508125306 16 67 17.7 0.0 0.00 0.00 0.00 51 1065.0
20260508125153 16 90 9.7 0.0 0.00 0.00 0.00 51 1064.9
20260508125047 16 22 11.3 0.0 0.00 0.00 0.00 51 1064.9
20260508124940 16 67 12.9 0.0 0.00 0.00 0.00 50 1064.9
20260508124820 16 112 17.7 0.0 0.00 0.00 0.00 49 1064.9
20260508124714 16 67 19.3 0.0 0.00 0.00 0.00 49 1064.9
20260508124601 16 45 19.3 0.0 0.00 0.00 0.00 48 1065.0
20260508124448 16 112 14.5 0.0 0.00 0.00 0.00 48 1065.1
20260508124337 16 90 19.3 0.0 0.00 0.00 0.00 48 1065.1
20260508124231 17 45 9.7 0.0 0.00 0.00 0.00 47 1065.1
20260508124117 17 135 17.7 0.0 0.00 0.00 0.00 48 1065.1
20260508124011 17 112 0.0 0.0 0.00 0.00 0.00 48 1065.1
20260508123851 17 90 22.5 0.0 0.00 0.00 0.00 47 1065.1
20260508123738 17 135 11.3 0.0 0.00 0.00 0.00 46 1065.2
20260508123631 17 135 17.7 0.0 0.00 0.00 0.00 43 1065.1
20260508123520 17 135 11.3 0.0 0.00 0.00 0.00 43 1065.1
20260508123357 17 135 17.7 0.0 0.00 0.00 0.00 45 1064.9
20260508123245 18 22 14.5 0.0 0.00 0.00 0.00 43 1064.9
20260508123132 18 45 0.0 0.0 0.00 0.00 0.00 42 1065.0
20260508123019 18 90 0.0 0.0 0.00 0.00 0.00 40 1065.1
20260508122914 18 112 0.0 0.0 0.00 0.00 0.00 38 1065.1
20260508122801 18 90 16.1 0.0 0.00 0.00 0.00 37 1065.0
20260508122649 18 112 6.4 0.0 0.00 0.00 0.00 38 1065.0
20260508122538 18 112 8.0 0.0 0.00 0.00 0.00 40 1065.1
20260508122422 18 112 0.0 0.0 0.00 0.00 0.00 42 1065.0
20260508122317 18 90 0.0 0.0 0.00 0.00 0.00 41 1065.1
20260508122205 18 112 12.9 0.0 0.00 0.00 0.00 37 1065.2
20260508122051 18 112 19.3 0.0 0.00 0.00 0.00 35 1065.1
20260508121946 18 112 6.4 0.0 0.00 0.00 0.00 34 1065.1
20260508121833 19 135 16.1 0.0 0.00 0.00 0.00 34 1064.9
20260508121728 19 112 19.3 0.0 0.00 0.00 0.00 33 1065.0
20260508121622 19 67 14.5 0.0 0.00 0.00 0.00 33 1065.0
20260508121501 19 45 6.4 0.0 0.00 0.00 0.00 34 1065.0
20260508121341 19 22 9.7 0.0 0.00 0.00 0.00 33 1065.0
20260508121227 19 45 11.3 0.0 0.00 0.00 0.00 33 1065.0
20260508121115 20 112 20.9 0.0 0.00 0.00 0.00 33 1065.1
20260508121002 20 90 8.0 0.0 0.00 0.00 0.00 33 1065.1
20260508120848 20 112 17.7 0.0 0.00 0.00 0.00 33 1065.1
20260508120728 20 45 11.3 0.0 0.00 0.00 0.00 34 1065.1
20260508120625 20 112 1.6 0.0 0.00 0.00 0.00 33 1065.1
20260508120517 20 112 9.7 0.0 0.00 0.00 0.00 32 1065.1
20260508120355 20 135 17.7 0.0 0.00 0.00 0.00 33 1065.1
20260508120236 81 112 11.3 0.0 0.00 0.00 0.00 11 1065.1
20260508120130 81 112 20.9 0.0 0.00 0.00 0.00 11 1065.1
20260508120011 20 112 9.7 0.0 0.00 0.00 0.00 32 1065.1
20260508115905 20 135 12.9 0.0 0.00 0.00 0.00 33 1065.1
20260508115744 20 135 11.3 0.0 0.00 0.00 0.00 33 1065.1
20260508115621 20 135 6.4 0.0 0.00 0.00 0.00 34 1065.1
20260508115501 20 90 0.0 0.0 0.00 0.00 0.00 34 1065.1
20260508115349 20 135 17.7 0.0 0.00 0.00 0.00 33 1065.1
20260508115236 19 135 20.9 0.0 0.00 0.00 0.00 34 1065.1
20260508115125 19 157 14.5 0.0 0.00 0.00 0.00 35 1065.0
20260508115019 19 112 0.0 0.0 0.00 0.00 0.00 35 1065.0
20260508114907 19 45 0.0 0.0 0.00 0.00 0.00 34 1065.1
20260508114800 19 90 0.0 0.0 0.00 0.00 0.00 35 1065.1
20260508114637 19 112 0.0 0.0 0.00 0.00 0.00 34 1065.1
20260508114517 19 157 20.9 0.0 0.00 0.00 0.00 33 1065.2
20260508114403 20 157 22.5 0.0 0.00 0.00 0.00 33 1065.1
20260508114251 20 112 11.3 0.0 0.00 0.00 0.00 33 1065.1
20260508114146 20 135 14.5 0.0 0.00 0.00 0.00 33 1065.2
20260508114026 20 90 14.5 0.0 0.00 0.00 0.00 33 1065.1
20260508113853 20 135 9.7 0.0 0.00 0.00 0.00 34 1065.0
20260508113730 20 22 0.0 0.0 0.00 0.00 0.00 34 1065.1
20260508113616 20 135 17.7 0.0 0.00 0.00 0.00 34 1065.2
20260508113444 20 157 0.0 0.0 0.00 0.00 0.00 34 1065.2
20260508113315 20 135 0.0 0.0 0.00 0.00 0.00 33 1065.3
20260508113156 20 67 12.9 0.0 0.00 0.00 0.00 34 1065.4
20260508113051 20 112 9.7 0.0 0.00 0.00 0.00 34 1065.3
20260508112945 20 112 9.7 0.0 0.00 0.00 0.00 34 1065.2
20260508112817 20 135 11.3 0.0 0.00 0.00 0.00 33 1065.2
20260508112712 20 112 8.0 0.0 0.00 0.00 0.00 34 1065.3
20260508112551 19 157 11.3 0.0 0.00 0.00 0.00 35 1065.3
20260508112430 19 112 3.2 0.0 0.00 0.00 0.00 34 1065.3
20260508112325 19 135 6.4 0.0 0.00 0.00 0.00 35 1065.3
20260508112212 19 67 6.4 0.0 0.00 0.00 0.00 35 1065.3
20260508112100 19 135 9.7 0.0 0.00 0.00 0.00 35 1065.3
20260508111954 19 45 9.7 0.0 0.00 0.00 0.00 34 1065.4
20260508111832 18 90 9.7 0.0 0.00 0.00 0.00 35 1065.5
20260508111703 19 67 9.7 0.0 0.00 0.00 0.00 33 1065.4
20260508111549 19 67 11.3 0.0 0.00 0.00 0.00 34 1065.4
20260508111420 19 90 12.9 0.0 0.00 0.00 0.00 34 1065.5
20260508111301 19 112 16.1 0.0 0.00 0.00 0.00 34 1065.4
20260508111153 18 112 14.5 0.0 0.00 0.00 0.00 34 1065.4
20260508111033 19 135 9.7 0.0 0.00 0.00 0.00 33 1065.4
20260508110918 19 112 19.3 0.0 0.00 0.00 0.00 34 1065.4
20260508110749 19 112 9.7 0.0 0.00 0.00 0.00 33 1065.3
20260508110620 19 90 24.1 0.0 0.00 0.00 0.00 35 1065.3
20260508110451 19 90 11.3 0.0 0.00 0.00 0.00 35 1065.4
20260508110332 19 135 9.7 0.0 0.00 0.00 0.00 34 1065.4
20260508110227 19 90 11.3 0.0 0.00 0.00 0.00 34 1065.4
20260508110120 19 90 22.5 0.0 0.00 0.00 0.00 34 1065.4
20260508110007 19 135 11.3 0.0 0.00 0.00 0.00 33 1065.4
20260508105853 19 90 27.4 0.0 0.00 0.00 0.00 34 1065.4
20260508105734 19 45 9.7 0.0 0.00 0.00 0.00 35 1065.4
20260508105619 19 112 20.9 0.0 0.00 0.00 0.00 35 1065.4
20260508105450 18 135 14.5 0.0 0.00 0.00 0.00 36 1065.3
20260508105336 18 22 0.0 0.0 0.00 0.00 0.00 35 1065.3
20260508105218 18 112 11.3 0.0 0.00 0.00 0.00 34 1065.3
20260508105110 18 135 11.3 0.0 0.00 0.00 0.00 35 1065.3
20260508104949 18 135 20.9 0.0 0.00 0.00 0.00 35 1065.3
20260508104820 18 135 8.0 0.0 0.00 0.00 0.00 34 1065.4
20260508104707 18 135 9.7 0.0 0.00 0.00 0.00 35 1065.4
20260508104539 18 135 9.7 0.0 0.00 0.00 0.00 35 1065.4
20260508104424 18 135 12.9 0.0 0.00 0.00 0.00 34 1065.3
20260508104314 18 90 22.5 0.0 0.00 0.00 0.00 34 1065.3
20260508104207 18 135 14.5 0.0 0.00 0.00 0.00 34 1065.4
20260508104054 19 157 11.3 0.0 0.00 0.00 0.00 33 1065.3
20260508103933 19 135 16.1 0.0 0.00 0.00 0.00 35 1065.4
20260508103827 18 135 9.7 0.0 0.00 0.00 0.00 34 1065.3
20260508103700 19 112 0.0 0.0 0.00 0.00 0.00 33 1065.4
20260508103555 19 112 16.1 0.0 0.00 0.00 0.00 34 1065.3
20260508103448 19 112 0.0 0.0 0.00 0.00 0.00 35 1065.3
20260508103328 19 135 8.0 0.0 0.00 0.00 0.00 34 1065.3
20260508103214 19 135 14.5 0.0 0.00 0.00 0.00 35 1065.3
20260508103111 19 112 9.7 0.0 0.00 0.00 0.00 34 1065.3
20260508103005 19 90 17.7 0.0 0.00 0.00 0.00 34 1065.3
20260508102850 19 112 16.1 0.0 0.00 0.00 0.00 34 1065.3
20260508102737 18 135 12.9 0.0 0.00 0.00 0.00 34 1065.3
20260508102625 18 45 9.7 0.0 0.00 0.00 0.00 35 1065.4
20260508102518 18 135 24.1 0.0 0.00 0.00 0.00 34 1065.3
20260508102406 18 67 9.7 0.0 0.00 0.00 0.00 34 1065.3
20260508102253 18 135 12.9 0.0 0.00 0.00 0.00 35 1065.3
20260508102140 18 135 11.3 0.0 0.00 0.00 0.00 35 1065.4
20260508102035 18 45 9.7 0.0 0.00 0.00 0.00 35 1065.3
20260508101921 18 135 9.7 0.0 0.00 0.00 0.00 35 1065.4
20260508101801 18 112 14.5 0.0 0.00 0.00 0.00 36 1065.4
20260508101649 18 135 16.1 0.0 0.00 0.00 0.00 35 1065.3
20260508101533 18 180 17.7 0.0 0.00 0.00 0.00 35 1065.4
20260508101413 18 135 14.5 0.0 0.00 0.00 0.00 36 1065.4
20260508101259 18 90 8.0 0.0 0.00 0.00 0.00 36 1065.4
20260508101131 18 157 14.5 0.0 0.00 0.00 0.00 36 1065.4
20260508101019 18 112 14.5 0.0 0.00 0.00 0.00 35 1065.4
20260508100915 18 90 12.9 0.0 0.00 0.00 0.00 35 1065.4
20260508100755 18 112 6.4 0.0 0.00 0.00 0.00 35 1065.5
20260508100650 18 90 11.3 0.0 0.00 0.00 0.00 35 1065.4
20260508100538 18 135 17.7 0.0 0.00 0.00 0.00 35 1065.4
20260508100430 18 112 12.9 0.0 0.00 0.00 0.00 34 1065.4
20260508100318 18 157 19.3 0.0 0.00 0.00 0.00 34 1065.4
20260508100205 18 112 9.7 0.0 0.00 0.00 0.00 34 1065.4
20260508100054 18 135 20.9 0.0 0.00 0.00 0.00 35 1065.5
20260508095939 18 135 24.1 0.0 0.00 0.00 0.00 35 1065.4
20260508095826 18 135 19.3 0.0 0.00 0.00 0.00 36 1065.3
20260508095722 18 112 8.0 0.0 0.00 0.00 0.00 36 1065.4
20260508095617 18 135 9.7 0.0 0.00 0.00 0.00 36 1065.4
20260508095512 18 135 24.1 0.0 0.00 0.00 0.00 36 1065.4
20260508095407 18 157 14.5 0.0 0.00 0.00 0.00 36 1065.4
20260508095306 18 135 12.9 0.0 0.00 0.00 0.00 35 1065.4
20260508095150 18 135 8.0 0.0 0.00 0.00 0.00 35 1065.4
20260508095043 18 135 20.9 0.0 0.00 0.00 0.00 35 1065.5
20260508094923 18 135 22.5 0.0 0.00 0.00 0.00 35 1065.4
20260508094811 18 90 11.3 0.0 0.00 0.00 0.00 34 1065.4
20260508094706 18 157 24.1 0.0 0.00 0.00 0.00 35 1065.4
20260508094601 18 112 19.3 0.0 0.00 0.00 0.00 35 1065.3
20260508094449 18 135 0.0 0.0 0.00 0.00 0.00 35 1065.3
20260508094334 18 112 8.0 0.0 0.00 0.00 0.00 35 1065.4
20260508094212 18 112 17.7 0.0 0.00 0.00 0.00 35 1065.4
20260508094043 18 112 14.5 0.0 0.00 0.00 0.00 34 1065.6
20260508093930 19 135 9.7 0.0 0.00 0.00 0.00 35 1065.5
20260508093818 19 112 9.7 0.0 0.00 0.00 0.00 35 1065.5
20260508093712 19 112 19.3 0.0 0.00 0.00 0.00 34 1065.5
20260508093554 19 90 16.1 0.0 0.00 0.00 0.00 33 1065.6
20260508093448 19 112 9.7 0.0 0.00 0.00 0.00 35 1065.6
20260508093341 19 112 9.7 0.0 0.00 0.00 0.00 36 1065.6
20260508093228 19 67 11.3 0.0 0.00 0.00 0.00 36 1065.6
20260508093107 19 45 0.0 0.0 0.00 0.00 0.00 36 1065.6
20260508092946 19 90 9.7 0.0 0.00 0.00 0.00 36 1065.6
20260508092840 19 112 16.1 0.0 0.00 0.00 0.00 37 1065.6
20260508092720 19 112 0.0 0.0 0.00 0.00 0.00 36 1065.7
20260508092607 19 112 25.7 0.0 0.00 0.00 0.00 36 1065.6
20260508092454 19 90 19.3 0.0 0.00 0.00 0.00 37 1065.6
20260508092348 19 135 11.3 0.0 0.00 0.00 0.00 36 1065.7
20260508092235 19 135 3.2 0.0 0.00 0.00 0.00 36 1065.6
20260508092113 19 112 9.7 0.0 0.00 0.00 0.00 37 1065.6
20260508092001 19 90 9.7 0.0 0.00 0.00 0.00 38 1065.6
20260508091855 19 112 17.7 0.0 0.00 0.00 0.00 38 1065.6
20260508091743 19 157 17.7 0.0 0.00 0.00 0.00 38 1065.6
20260508091629 19 135 14.5 0.0 0.00 0.00 0.00 39 1065.6
20260508091509 20 157 14.5 0.0 0.00 0.00 0.00 38 1065.7
20260508091402 20 112 11.3 0.0 0.00 0.00 0.00 38 1065.6
20260508091243 20 135 11.3 0.0 0.00 0.00 0.00 39 1065.6
20260508091140 20 112 16.1 0.0 0.00 0.00 0.00 39 1065.6
20260508091032 20 112 9.7 0.0 0.00 0.00 0.00 41 1065.6
20260508090919 19 157 3.2 0.0 0.00 0.00 0.00 41 1065.6
20260508090805 19 157 0.0 0.0 0.00 0.00 0.00 41 1065.6
20260508090652 19 135 14.5 0.0 0.00 0.00 0.00 42 1065.6
20260508090533 19 90 9.7 0.0 0.00 0.00 0.00 43 1065.6
20260508090429 18 135 16.1 0.0 0.00 0.00 0.00 43 1065.6
20260508090321 18 112 9.7 0.0 0.00 0.00 0.00 43 1065.6
20260508090209 18 135 0.0 0.0 0.00 0.00 0.00 43 1065.6
20260508090055 18 157 0.0 0.0 0.00 0.00 0.00 42 1065.6
20260508085935 18 135 12.9 0.0 0.00 0.00 0.00 41 1065.7
20260508085821 18 90 6.4 0.0 0.00 0.00 0.00 43 1065.7
20260508085703 18 135 16.1 0.0 0.00 0.00 0.00 45 1065.7
20260508085555 18 112 12.9 0.0 0.00 0.00 0.00 46 1065.6
20260508085443 18 112 17.7 0.0 0.00 0.00 0.00 44 1065.6
20260508085321 18 135 11.3 0.0 0.00 0.00 0.00 44 1065.6
20260508085208 18 180 19.3 0.0 0.00 0.00 0.00 47 1065.6
20260508085057 18 157 9.7 0.0 0.00 0.00 0.00 46 1065.7
20260508084950 18 135 9.7 0.0 0.00 0.00 0.00 47 1065.7
20260508084837 18 157 8.0 0.0 0.00 0.00 0.00 47 1065.7
20260508084726 18 135 16.1 0.0 0.00 0.00 0.00 47 1065.7
20260508084621 18 90 14.5 0.0 0.00 0.00 0.00 47 1065.8
20260508084513 18 135 6.4 0.0 0.00 0.00 0.00 47 1065.7
20260508084354 18 112 8.0 0.0 0.00 0.00 0.00 46 1065.8
20260508084247 18 112 9.7 0.0 0.00 0.00 0.00 45 1065.7
20260508084134 18 90 19.3 0.0 0.00 0.00 0.00 45 1065.7
20260508084014 18 90 12.9 0.0 0.00 0.00 0.00 45 1065.8
20260508083859 18 90 14.5 0.0 0.00 0.00 0.00 45 1065.8
20260508083740 18 135 11.3 0.0 0.00 0.00 0.00 45 1065.8
20260508083625 18 135 6.4 0.0 0.00 0.00 0.00 45 1065.8
20260508083511 19 135 14.5 0.0 0.00 0.00 0.00 45 1065.8
20260508083351 19 135 12.9 0.0 0.00 0.00 0.00 46 1065.7
20260508083230 19 112 8.0 0.0 0.00 0.00 0.00 47 1065.8
20260508083124 19 90 0.0 0.0 0.00 0.00 0.00 47 1065.8
20260508083011 18 67 0.0 0.0 0.00 0.00 0.00 47 1065.8
20260508082850 18 22 8.0 0.0 0.00 0.00 0.00 47 1065.7
20260508082729 18 112 9.7 0.0 0.00 0.00 0.00 47 1065.8
20260508082619 19 112 12.9 0.0 0.00 0.00 0.00 47 1065.7
20260508082512 19 112 16.1 0.0 0.00 0.00 0.00 47 1065.7
20260508082400 18 90 8.0 0.0 0.00 0.00 0.00 47 1065.8
20260508082253 18 135 9.7 0.0 0.00 0.00 0.00 48 1065.8
20260508082131 18 112 9.7 0.0 0.00 0.00 0.00 48 1065.7
20260508082012 18 112 14.5 0.0 0.00 0.00 0.00 47 1065.7
20260508081857 18 135 19.3 0.0 0.00 0.00 0.00 48 1065.7
20260508081745 18 135 8.0 0.0 0.00 0.00 0.00 47 1065.7
20260508081631 18 157 14.5 0.0 0.00 0.00 0.00 48 1065.7
20260508081512 18 112 9.7 0.0 0.00 0.00 0.00 48 1065.7
20260508081405 18 135 8.0 0.0 0.00 0.00 0.00 48 1065.7
20260508081252 18 135 8.0 0.0 0.00 0.00 0.00 47 1065.7
20260508081138 18 180 14.5 0.0 0.00 0.00 0.00 47 1065.7
20260508081018 18 180 9.7 0.0 0.00 0.00 0.00 47 1065.7
20260508080913 18 135 14.5 0.0 0.00 0.00 0.00 46 1065.7
20260508080759 18 135 11.3 0.0 0.00 0.00 0.00 45 1065.7
20260508080640 18 157 9.7 0.0 0.00 0.00 0.00 45 1065.7
20260508080532 18 180 8.0 0.0 0.00 0.00 0.00 45 1065.6
20260508080411 18 135 11.3 0.0 0.00 0.00 0.00 45 1065.7
20260508080300 18 135 9.7 0.0 0.00 0.00 0.00 45 1065.7
20260508080154 18 157 17.7 0.0 0.00 0.00 0.00 45 1065.7
20260508080040 18 135 9.7 0.0 0.00 0.00 0.00 46 1065.7
20260508075920 18 135 6.4 0.0 0.00 0.00 0.00 46 1065.6
20260508075814 18 135 11.3 0.0 0.00 0.00 0.00 46 1065.7
20260508075710 18 135 8.0 0.0 0.00 0.00 0.00 46 1065.8
20260508075605 18 135 11.3 0.0 0.00 0.00 0.00 46 1065.7
20260508075454 18 135 16.1 0.0 0.00 0.00 0.00 46 1065.7
20260508075338 18 112 9.7 0.0 0.00 0.00 0.00 46 1065.7
20260508075217 18 157 9.7 0.0 0.00 0.00 0.00 46 1065.6
20260508075112 18 157 12.9 0.0 0.00 0.00 0.00 44 1065.7
20260508075007 18 157 8.0 0.0 0.00 0.00 0.00 46 1065.7
20260508074853 18 135 14.5 0.0 0.00 0.00 0.00 46 1065.6
20260508074742 18 135 14.5 0.0 0.00 0.00 0.00 47 1065.7
20260508074635 18 112 12.9 0.0 0.00 0.00 0.00 47 1065.7
20260508074523 18 112 14.5 0.0 0.00 0.00 0.00 49 1065.7
20260508074400 18 112 16.1 0.0 0.00 0.00 0.00 49 1065.7
20260508074240 18 135 4.8 0.0 0.00 0.00 0.00 49 1065.7
20260508074127 18 112 12.9 0.0 0.00 0.00 0.00 48 1065.6
20260508074008 18 112 16.1 0.0 0.00 0.00 0.00 49 1065.6
20260508073856 18 112 8.0 0.0 0.00 0.00 0.00 48 1065.7
20260508073738 18 135 16.1 0.0 0.00 0.00 0.00 48 1065.7
20260508073620 18 157 8.0 0.0 0.00 0.00 0.00 48 1065.6
20260508073515 18 157 16.1 0.0 0.00 0.00 0.00 47 1065.7
20260508073408 18 157 14.5 0.0 0.00 0.00 0.00 48 1065.7
20260508073255 18 157 6.4 0.0 0.00 0.00 0.00 47 1065.6
20260508073142 18 157 12.9 0.0 0.00 0.00 0.00 48 1065.6
20260508073030 18 135 8.0 0.0 0.00 0.00 0.00 48 1065.6
20260508072915 18 135 9.7 0.0 0.00 0.00 0.00 49 1065.6
20260508072802 18 112 8.0 0.0 0.00 0.00 0.00 50 1065.5
20260508072649 18 67 6.4 0.0 0.00 0.00 0.00 49 1065.5
20260508072543 18 135 11.3 0.0 0.00 0.00 0.00 48 1065.6
20260508072421 18 135 8.0 0.0 0.00 0.00 0.00 48 1065.5
20260508072309 19 135 16.1 0.0 0.00 0.00 0.00 47 1065.5
20260508072206 19 112 9.7 0.0 0.00 0.00 0.00 49 1065.5
20260508072057 19 135 4.8 0.0 0.00 0.00 0.00 51 1065.5
20260508071938 19 135 9.7 0.0 0.00 0.00 0.00 51 1065.5
20260508071833 19 112 9.7 0.0 0.00 0.00 0.00 49 1065.5
20260508071726 19 135 9.7 0.0 0.00 0.00 0.00 50 1065.6
20260508071614 19 135 6.4 0.0 0.00 0.00 0.00 51 1065.6
20260508071511 19 180 4.8 0.0 0.00 0.00 0.00 50 1065.6
20260508071405 19 135 6.4 0.0 0.00 0.00 0.00 50 1065.5
20260508071250 19 90 9.7 0.0 0.00 0.00 0.00 52 1065.5
20260508071138 19 135 0.0 0.0 0.00 0.00 0.00 51 1065.5
20260508071032 19 135 4.8 0.0 0.00 0.00 0.00 50 1065.5
20260508070919 19 135 9.7 0.0 0.00 0.00 0.00 50 1065.5
20260508070807 19 112 6.4 0.0 0.00 0.00 0.00 51 1065.5
20260508070702 19 135 0.0 0.0 0.00 0.00 0.00 51 1065.4
20260508070549 19 112 11.3 0.0 0.00 0.00 0.00 51 1065.5
20260508070443 19 112 4.8 0.0 0.00 0.00 0.00 52 1065.5
20260508070330 18 135 9.7 0.0 0.00 0.00 0.00 52 1065.4
20260508070218 18 157 4.8 0.0 0.00 0.00 0.00 52 1065.4
20260508070105 18 157 6.4 0.0 0.00 0.00 0.00 51 1065.4
20260508065950 18 135 9.7 0.0 0.00 0.00 0.00 51 1065.3
20260508065831 19 112 6.4 0.0 0.00 0.00 0.00 51 1065.3
20260508065716 19 135 11.3 0.0 0.00 0.00 0.00 52 1065.3
20260508065603 19 135 4.8 0.0 0.00 0.00 0.00 53 1065.4
20260508065441 18 135 3.2 0.0 0.00 0.00 0.00 53 1065.3
20260508065321 18 112 6.4 0.0 0.00 0.00 0.00 54 1065.3
20260508065208 18 112 3.2 0.0 0.00 0.00 0.00 54 1065.3
20260508065104 18 135 4.8 0.0 0.00 0.00 0.00 53 1065.1
20260508064958 18 135 8.0 0.0 0.00 0.00 0.00 54 1065.2
20260508064852 18 135 4.8 0.0 0.00 0.00 0.00 53 1065.3
20260508064723 18 135 9.7 0.0 0.00 0.00 0.00 52 1065.2
20260508064555 18 157 8.0 0.0 0.00 0.00 0.00 53 1065.2
20260508064449 18 135 4.8 0.0 0.00 0.00 0.00 55 1065.1
20260508064335 18 135 3.2 0.0 0.00 0.00 0.00 54 1065.2
20260508064214 18 112 6.4 0.0 0.00 0.00 0.00 54 1065.2
20260508064101 18 112 4.8 0.0 0.00 0.00 0.00 56 1065.1
20260508063939 18 135 0.0 0.0 0.00 0.00 0.00 57 1065.1
20260508063826 18 135 4.8 0.0 0.00 0.00 0.00 56 1065.1
20260508063708 17 135 4.8 0.0 0.00 0.00 0.00 56 1065.1
20260508063602 17 135 8.0 0.0 0.00 0.00 0.00 56 1065.1
20260508063458 17 135 6.4 0.0 0.00 0.00 0.00 57 1065.1
20260508063352 17 157 0.0 0.0 0.00 0.00 0.00 57 1065.1
20260508063245 17 157 0.0 0.0 0.00 0.00 0.00 57 1065.1
20260508063132 17 157 0.0 0.0 0.00 0.00 0.00 58 1065.1
20260508063027 17 157 0.0 0.0 0.00 0.00 0.00 59 1065.1
20260508062858 17 157 3.2 0.0 0.00 0.00 0.00 58 1065.1
20260508062745 17 157 4.8 0.0 0.00 0.00 0.00 59 1065.1
20260508062633 16 157 4.8 0.0 0.00 0.00 0.00 59 1065.1
20260508062511 16 157 3.2 0.0 0.00 0.00 0.00 59 1065.1
20260508062358 16 157 6.4 0.0 0.00 0.00 0.00 60 1065.2
20260508062252 16 157 4.8 0.0 0.00 0.00 0.00 59 1065.1
20260508062131 16 157 6.4 0.0 0.00 0.00 0.00 59 1065.1
20260508062010 16 157 6.4 0.0 0.00 0.00 0.00 59 1065.1
20260508061856 16 157 4.8 0.0 0.00 0.00 0.00 59 1065.1
20260508061746 16 157 6.4 0.0 0.00 0.00 0.00 59 1065.1
20260508061639 16 157 8.0 0.0 0.00 0.00 0.00 59 1065.1
20260508061534 16 157 3.2 0.0 0.00 0.00 0.00 59 1065.1
20260508061421 16 157 4.8 0.0 0.00 0.00 0.00 59 1065.1
20260508061259 16 157 3.2 0.0 0.00 0.00 0.00 59 1065.1
20260508061138 16 157 6.4 0.0 0.00 0.00 0.00 60 1065.1
20260508061009 16 157 3.2 0.0 0.00 0.00 0.00 60 1065.1
20260508060856 16 157 6.4 0.0 0.00 0.00 0.00 61 1065.1
20260508060743 16 157 0.0 0.0 0.00 0.00 0.00 62 1065.1
20260508060637 16 157 0.0 0.0 0.00 0.00 0.00 62 1065.1
20260508060517 16 157 3.2 0.0 0.00 0.00 0.00 60 1065.1
20260508060414 16 157 8.0 0.0 0.00 0.00 0.00 61 1065.1
20260508060306 16 157 8.0 0.0 0.00 0.00 0.00 62 1065.1
20260508060145 16 157 0.0 0.0 0.00 0.00 0.00 63 1065.1
20260508060026 16 157 0.0 0.0 0.00 0.00 0.00 64 1065.1
20260508055919 16 157 0.0 0.0 0.00 0.00 0.00 65 1065.1
20260508055805 16 157 0.0 0.0 0.00 0.00 0.00 67 1065.0
20260508055653 16 157 0.0 0.0 0.00 0.00 0.00 66 1065.1
20260508055548 16 157 0.0 0.0 0.00 0.00 0.00 67 1065.1
20260508055442 16 157 0.0 0.0 0.00 0.00 0.00 68 1065.0
20260508055321 16 157 0.0 0.0 0.00 0.00 0.00 70 1065.1
20260508055209 15 157 0.0 0.0 0.00 0.00 0.00 69 1065.0
20260508055103 15 157 0.0 0.0 0.00 0.00 0.00 71 1065.0
20260508054950 15 157 0.0 0.0 0.00 0.00 0.00 72 1065.1
20260508054829 15 157 0.0 0.0 0.00 0.00 0.00 72 1065.0
20260508054715 15 157 0.0 0.0 0.00 0.00 0.00 73 1065.0
20260508054602 15 157 0.0 0.0 0.00 0.00 0.00 73 1065.0
20260508054451 15 157 0.0 0.0 0.00 0.00 0.00 73 1065.0
20260508054344 15 157 0.0 0.0 0.00 0.00 0.00 73 1065.0
20260508054230 15 157 0.0 0.0 0.00 0.00 0.00 73 1065.0
20260508054112 15 157 0.0 0.0 0.00 0.00 0.00 75 1065.0
20260508054004 15 157 0.0 0.0 0.00 0.00 0.00 75 1065.0
20260508053835 16 157 0.0 0.0 0.00 0.00 0.00 76 1065.0
20260508053721 15 157 0.0 0.0 0.00 0.00 0.00 76 1065.0
20260508053601 15 157 0.0 0.0 0.00 0.00 0.00 76 1064.9
20260508053447 15 157 0.0 0.0 0.00 0.00 0.00 77 1064.9
20260508053335 15 157 0.0 0.0 0.00 0.00 0.00 77 1064.9
20260508053229 15 157 0.0 0.0 0.00 0.00 0.00 78 1065.0
20260508053108 15 157 0.0 0.0 0.00 0.00 0.00 78 1065.0
20260508052947 15 157 0.0 0.0 0.00 0.00 0.00 79 1064.9
20260508052841 15 157 0.0 0.0 0.00 0.00 0.00 79 1064.9
20260508052736 15 157 0.0 0.0 0.00 0.00 0.00 79 1064.8
20260508052631 14 157 0.0 0.0 0.00 0.00 0.00 80 1064.8
20260508052526 14 157 0.0 0.0 0.00 0.00 0.00 81 1064.8
20260508052413 13 157 0.0 0.0 0.00 0.00 0.00 81 1064.8
20260508052251 13 157 0.0 0.0 0.00 0.00 0.00 82 1064.8
20260508052123 13 157 0.0 0.0 0.00 0.00 0.00 83 1064.7
20260508052017 12 157 0.0 0.0 0.00 0.00 0.00 83 1064.7
20260508051904 12 157 0.0 0.0 0.00 0.00 0.00 84 1064.7
20260508051750 12 157 0.0 0.0 0.00 0.00 0.00 84 1064.7
20260508051645 12 157 0.0 0.0 0.00 0.00 0.00 84 1064.7
20260508051530 11 157 0.0 0.0 0.00 0.00 0.00 85 1064.7
20260508051401 11 157 0.0 0.0 0.00 0.00 0.00 85 1064.7
20260508051250 11 157 0.0 0.0 0.00 0.00 0.00 86 1064.7
20260508051143 10 157 0.0 0.0 0.00 0.00 0.00 86 1064.7
20260508051023 10 157 0.0 0.0 0.00 0.00 0.00 87 1064.7
20260508050917 10 157 0.0 0.0 0.00 0.00 0.00 87 1064.7
20260508050803 10 157 0.0 0.0 0.00 0.00 0.00 87 1064.7
20260508050658 10 157 0.0 0.0 0.00 0.00 0.00 87 1064.6
20260508050538 10 157 0.0 0.0 0.00 0.00 0.00 87 1064.6
20260508050426 10 157 0.0 0.0 0.00 0.00 0.00 87 1064.6
20260508050319 10 157 0.0 0.0 0.00 0.00 0.00 87 1064.6
20260508050214 10 157 0.0 0.0 0.00 0.00 0.00 87 1064.6
20260508050109 10 157 0.0 0.0 0.00 0.00 0.00 87 1064.6
20260508050003 10 157 0.0 0.0 0.00 0.00 0.00 87 1064.6
20260508045850 10 157 0.0 0.0 0.00 0.00 0.00 87 1064.5
20260508045743 10 157 0.0 0.0 0.00 0.00 0.00 87 1064.6
20260508045621 10 157 0.0 0.0 0.00 0.00 0.00 87 1064.6
20260508045509 10 157 0.0 0.0 0.00 0.00 0.00 86 1064.6
20260508045356 10 157 0.0 0.0 0.00 0.00 0.00 86 1064.5
20260508045250 11 157 0.0 0.0 0.00 0.00 0.00 86 1064.5
20260508045136 11 157 0.0 0.0 0.00 0.00 0.00 86 1064.5
20260508045024 10 157 0.0 0.0 0.00 0.00 0.00 87 1064.6
20260508044911 10 157 0.0 0.0 0.00 0.00 0.00 87 1064.4
20260508044757 10 157 0.0 0.0 0.00 0.00 0.00 87 1064.6
20260508044628 10 157 0.0 0.0 0.00 0.00 0.00 88 1064.5
20260508044507 10 157 0.0 0.0 0.00 0.00 0.00 88 1064.6
20260508044356 10 157 0.0 0.0 0.00 0.00 0.00 88 1064.5
20260508044247 10 157 0.0 0.0 0.00 0.00 0.00 88 1064.5
20260508044133 10 157 0.0 0.0 0.00 0.00 0.00 88 1064.6
20260508044019 10 157 0.0 0.0 0.00 0.00 0.00 88 1064.5
20260508043858 10 157 0.0 0.0 0.00 0.00 0.00 88 1064.5
20260508043737 10 157 0.0 0.0 0.00 0.00 0.00 88 1064.5
20260508043631 10 157 0.0 0.0 0.00 0.00 0.00 88 1064.5
20260508043526 9 157 0.0 0.0 0.00 0.00 0.00 89 1064.4
20260508043412 9 157 0.0 0.0 0.00 0.00 0.00 89 1064.4
20260508043249 8 157 0.0 0.0 0.00 0.00 0.00 89 1064.5
20260508043135 8 157 0.0 0.0 0.00 0.00 0.00 89 1064.4
20260508043029 8 157 0.0 0.0 0.00 0.00 0.00 89 1064.5
20260508042915 8 157 0.0 0.0 0.00 0.00 0.00 89 1064.5
20260508042755 8 157 0.0 0.0 0.00 0.00 0.00 90 1064.4
20260508042640 8 157 0.0 0.0 0.00 0.00 0.00 90 1064.4
20260508042527 7 157 0.0 0.0 0.00 0.00 0.00 90 1064.4
20260508042406 7 157 0.0 0.0 0.00 0.00 0.00 90 1064.5
20260508042244 7 157 0.0 0.0 0.00 0.00 0.00 90 1064.5
20260508042126 7 157 0.0 0.0 0.00 0.00 0.00 90 1064.4
20260508042018 7 157 0.0 0.0 0.00 0.00 0.00 90 1064.4
20260508041905 7 157 0.0 0.0 0.00 0.00 0.00 90 1064.4
20260508041738 7 157 0.0 0.0 0.00 0.00 0.00 90 1064.4
20260508041632 7 157 0.0 0.0 0.00 0.00 0.00 90 1064.4
20260508041528 7 157 0.0 0.0 0.00 0.00 0.00 90 1064.4
20260508041422 7 157 0.0 0.0 0.00 0.00 0.00 90 1064.4
20260508041319 7 157 0.0 0.0 0.00 0.00 0.00 90 1064.4
20260508041211 7 157 0.0 0.0 0.00 0.00 0.00 90 1064.4
20260508041049 7 157 0.0 0.0 0.00 0.00 0.00 90 1064.3
20260508040937 7 157 0.0 0.0 0.00 0.00 0.00 90 1064.3
20260508040823 7 157 0.0 0.0 0.00 0.00 0.00 90 1064.3
20260508040711 7 157 0.0 0.0 0.00 0.00 0.00 90 1064.4
20260508040606 7 157 0.0 0.0 0.00 0.00 0.00 90 1064.3
20260508040501 7 157 0.0 0.0 0.00 0.00 0.00 90 1064.4
20260508040347 7 157 0.0 0.0 0.00 0.00 0.00 90 1064.3
20260508040226 7 157 0.0 0.0 0.00 0.00 0.00 90 1064.3
20260508040113 7 157 0.0 0.0 0.00 0.00 0.00 90 1064.3
20260508040009 7 157 0.0 0.0 0.00 0.00 0.00 90 1064.4
20260508035855 7 157 0.0 0.0 0.00 0.00 0.00 90 1064.4
20260508035734 7 157 0.0 0.0 0.00 0.00 0.00 90 1064.4
20260508035631 7 157 0.0 0.0 0.00 0.00 0.00 90 1064.3
20260508035523 7 157 0.0 0.0 0.00 0.00 0.00 90 1064.4
20260508035402 7 157 0.0 0.0 0.00 0.00 0.00 90 1064.4
20260508035241 7 157 0.0 0.0 0.00 0.00 0.00 90 1064.3
20260508035128 7 157 0.0 0.0 0.00 0.00 0.00 90 1064.3
20260508035024 7 157 0.0 0.0 0.00 0.00 0.00 90 1064.4
20260508034918 7 157 0.0 0.0 0.00 0.00 0.00 90 1064.3
20260508034756 7 157 0.0 0.0 0.00 0.00 0.00 90 1064.3
20260508034636 7 157 0.0 0.0 0.00 0.00 0.00 90 1064.3
20260508034531 7 157 0.0 0.0 0.00 0.00 0.00 90 1064.3
20260508034425 7 157 0.0 0.0 0.00 0.00 0.00 90 1064.3
20260508034304 7 157 0.0 0.0 0.00 0.00 0.00 90 1064.3
20260508034151 7 157 0.0 0.0 0.00 0.00 0.00 90 1064.3
20260508034038 7 157 0.0 0.0 0.00 0.00 0.00 90 1064.3
20260508033932 7 157 0.0 0.0 0.00 0.00 0.00 90 1064.3
20260508033819 7 157 0.0 0.0 0.00 0.00 0.00 90 1064.3
20260508033658 7 157 0.0 0.0 0.00 0.00 0.00 90 1064.3
20260508033537 7 157 0.0 0.0 0.00 0.00 0.00 90 1064.3
20260508033417 7 157 0.0 0.0 0.00 0.00 0.00 90 1064.3
20260508033311 7 157 0.0 0.0 0.00 0.00 0.00 90 1064.3
20260508033158 7 157 0.0 0.0 0.00 0.00 0.00 90 1064.4
20260508033028 7 157 0.0 0.0 0.00 0.00 0.00 90 1064.3
20260508032916 7 157 0.0 0.0 0.00 0.00 0.00 90 1064.3
20260508032754 7 157 0.0 0.0 0.00 0.00 0.00 90 1064.3
20260508032642 7 157 0.0 0.0 0.00 0.00 0.00 90 1064.3
20260508032538 7 157 0.0 0.0 0.00 0.00 0.00 90 1064.3
20260508032431 7 157 0.0 0.0 0.00 0.00 0.00 90 1064.3
20260508032319 7 157 0.0 0.0 0.00 0.00 0.00 90 1064.3
20260508032213 7 157 0.0 0.0 0.00 0.00 0.00 90 1064.2
20260508032100 7 157 0.0 0.0 0.00 0.00 0.00 90 1064.2
20260508031947 7 157 0.0 0.0 0.00 0.00 0.00 90 1064.2
20260508031833 7 157 0.0 0.0 0.00 0.00 0.00 90 1064.3
20260508031721 7 157 0.0 0.0 0.00 0.00 0.00 90 1064.3
20260508031615 7 157 0.0 0.0 0.00 0.00 0.00 90 1064.3
20260508031503 7 157 0.0 0.0 0.00 0.00 0.00 90 1064.3
20260508031357 7 157 0.0 0.0 0.00 0.00 0.00 90 1064.2
20260508031244 7 157 0.0 0.0 0.00 0.00 0.00 90 1064.2
20260508031131 7 157 0.0 0.0 0.00 0.00 0.00 90 1064.2
20260508031018 7 157 0.0 0.0 0.00 0.00 0.00 90 1064.2
20260508030914 7 157 0.0 0.0 0.00 0.00 0.00 90 1064.2
20260508030808 7 157 0.0 0.0 0.00 0.00 0.00 90 1064.2
20260508030657 7 157 0.0 0.0 0.00 0.00 0.00 90 1064.2
20260508030550 7 157 0.0 0.0 0.00 0.00 0.00 90 1064.2
20260508030428 7 157 0.0 0.0 0.00 0.00 0.00 90 1064.2
20260508030307 7 157 0.0 0.0 0.00 0.00 0.00 90 1064.1
20260508030147 7 157 0.0 0.0 0.00 0.00 0.00 90 1064.2
20260508030041 7 157 0.0 0.0 0.00 0.00 0.00 90 1064.2
20260508025928 7 157 0.0 0.0 0.00 0.00 0.00 90 1064.1
20260508025815 7 157 0.0 0.0 0.00 0.00 0.00 90 1064.2
20260508025653 7 157 0.0 0.0 0.00 0.00 0.00 90 1064.2
20260508025541 7 157 0.0 0.0 0.00 0.00 0.00 90 1064.2
20260508025429 7 157 0.0 0.0 0.00 0.00 0.00 90 1064.3
20260508025323 7 157 0.0 0.0 0.00 0.00 0.00 90 1064.1
20260508025210 7 157 0.0 0.0 0.00 0.00 0.00 90 1064.2
20260508025104 7 157 0.0 0.0 0.00 0.00 0.00 90 1064.2
20260508024953 7 157 0.0 0.0 0.00 0.00 0.00 90 1064.1
20260508024846 7 157 0.0 0.0 0.00 0.00 0.00 90 1064.2
20260508024733 7 157 0.0 0.0 0.00 0.00 0.00 90 1064.2
20260508024628 7 157 0.0 0.0 0.00 0.00 0.00 90 1064.1
20260508024459 7 157 0.0 0.0 0.00 0.00 0.00 90 1064.1
20260508024346 7 157 0.0 0.0 0.00 0.00 0.00 90 1064.2
20260508024228 7 157 0.0 0.0 0.00 0.00 0.00 90 1064.0
20260508024113 7 157 0.0 0.0 0.00 0.00 0.00 90 1064.1
20260508024006 7 157 0.0 0.0 0.00 0.00 0.00 90 1064.1
20260508023853 7 157 0.0 0.0 0.00 0.00 0.00 90 1064.1
20260508023749 7 157 0.0 0.0 0.00 0.00 0.00 90 1064.0
20260508023643 7 157 0.0 0.0 0.00 0.00 0.00 90 1064.1
20260508023537 7 157 0.0 0.0 0.00 0.00 0.00 90 1064.0
20260508023416 7 157 0.0 0.0 0.00 0.00 0.00 90 1064.0
20260508023304 7 157 0.0 0.0 0.00 0.00 0.00 90 1064.1
20260508023150 7 157 0.0 0.0 0.00 0.00 0.00 90 1064.0
20260508023029 8 157 0.0 0.0 0.00 0.00 0.00 90 1064.0
20260508022909 8 157 0.0 0.0 0.00 0.00 0.00 90 1064.1
20260508022803 8 157 0.0 0.0 0.00 0.00 0.00 90 1064.0
20260508022652 8 157 0.0 0.0 0.00 0.00 0.00 90 1064.0
20260508022545 8 157 0.0 0.0 0.00 0.00 0.00 90 1064.0
20260508022432 8 157 0.0 0.0 0.00 0.00 0.00 90 1063.9
20260508022319 8 157 0.0 0.0 0.00 0.00 0.00 90 1064.0
20260508022206 8 157 0.0 0.0 0.00 0.00 0.00 90 1064.0